GEFSCGP_prec_meanprecacc_024.txt.gz
Total_Precipitation_Accumulation
0.00 0.00 0.00 0.00 0.00 0.00 0.00 0.00 0.00 0.00 0.00 0.00 0.00 0.01 0.05 0.07 0.08 0.08 0.09 0.11 0.12 0.15 0.24 0.38 0.61 0.90 1.39 2.08 2.72 2.94 2.67 1.94 1.39 1.00 0.71 0.42 0.26 0.19 0.16 0.18 0.18 0.14 0.12 0.08
0.00 0.00 0.00 0.00 0.00 0.00 0.00 0.00 0.00 0.00 0.00 0.00 0.00 0.01 0.03 0.05 0.06 0.05 0.05 0.07 0.10 0.18 0.34 0.63 1.00 1.43 1.88 2.20 2.39 2.29 1.91 1.31 0.92 0.62 0.36 0.20 0.14 0.08 0.05 0.03 0.02 0.02 0.02 0.02
0.00 0.00 0.00 0.00 0.00 0.00 0.00 0.00 0.00 0.00 0.00 0.00 0.00 0.01 0.02 0.04 0.06 0.08 0.09 0.11 0.21 0.38 0.75 1.29 1.77 1.99 2.00 1.94 1.67 1.27 0.92 0.64 0.51 0.31 0.16 0.09 0.05 0.02 0.01 0.01 0.01 0.01 0.00 0.00
0.00 0.00 0.00 0.00 0.00 0.00 0.00 0.00 0.00 0.00 0.00 0.00 0.00 0.01 0.04 0.09 0.11 0.13 0.18 0.26 0.36 0.60 1.03 1.53 1.83 1.79 1.57 1.27 0.87 0.56 0.43 0.33 0.27 0.19 0.15 0.12 0.07 0.04 0.04 0.03 0.02 0.01 0.00 0.00
0.00 0.01 0.00 0.00 0.00 0.00 0.00 0.00 0.00 0.00 0.00 0.00 0.00 0.01 0.04 0.11 0.12 0.13 0.16 0.19 0.30 0.55 0.79 0.90 0.93 0.88 0.71 0.52 0.46 0.43 0.34 0.34 0.32 0.25 0.21 0.16 0.11 0.08 0.07 0.06 0.04 0.04 0.02 0.01
0.01 0.01 0.00 0.00 0.00 0.00 0.00 0.00 0.00 0.00 0.02 0.05 0.05 0.05 0.09 0.22 0.25 0.15 0.10 0.14 0.30 0.42 0.45 0.39 0.30 0.26 0.24 0.22 0.23 0.24 0.23 0.30 0.35 0.33 0.27 0.23 0.18 0.13 0.10 0.08 0.07 0.06 0.05 0.03
0.03 0.01 0.01 0.02 0.02 0.01 0.00 0.00 0.00 0.02 0.09 0.15 0.09 0.05 0.18 0.38 0.27 0.11 0.05 0.06 0.12 0.24 0.33 0.35 0.30 0.23 0.18 0.15 0.13 0.13 0.12 0.15 0.18 0.21 0.22 0.21 0.20 0.17 0.14 0.12 0.08 0.08 0.07 0.07
0.05 0.03 0.01 0.01 0.01 0.01 0.01 0.00 0.00 0.00 0.01 0.02 0.03 0.10 0.30 0.33 0.16 0.06 0.02 0.02 0.07 0.15 0.21 0.24 0.22 0.17 0.14 0.10 0.08 0.06 0.06 0.07 0.07 0.08 0.10 0.11 0.14 0.16 0.16 0.19 0.15 0.14 0.15 0.15
0.01 0.01 0.00 0.01 0.02 0.02 0.01 0.00 0.00 0.00 0.00 0.01 0.05 0.17 0.25 0.21 0.15 0.06 0.02 0.02 0.03 0.08 0.10 0.10 0.09 0.07 0.06 0.05 0.05 0.04 0.03 0.03 0.03 0.03 0.05 0.06 0.09 0.12 0.14 0.16 0.16 0.16 0.20 0.19
0.00 0.00 0.00 0.01 0.01 0.02 0.02 0.01 0.00 0.00 0.00 0.00 0.03 0.20 0.30 0.24 0.14 0.04 0.02 0.02 0.03 0.05 0.06 0.06 0.05 0.04 0.03 0.02 0.02 0.02 0.02 0.02 0.01 0.01 0.02 0.02 0.04 0.07 0.09 0.10 0.12 0.14 0.16 0.18
0.00 0.00 0.00 0.00 0.01 0.02 0.02 0.01 0.01 0.01 0.01 0.01 0.01 0.11 0.15 0.12 0.06 0.02 0.01 0.01 0.02 0.03 0.03 0.03 0.02 0.02 0.02 0.01 0.01 0.02 0.02 0.02 0.02 0.01 0.01 0.01 0.03 0.04 0.06 0.10 0.12 0.13 0.12 0.12
0.00 0.00 0.00 0.01 0.02 0.03 0.02 0.02 0.02 0.02 0.01 0.01 0.02 0.07 0.07 0.06 0.03 0.01 0.00 0.00 0.00 0.00 0.01 0.01 0.01 0.01 0.01 0.01 0.01 0.02 0.02 0.02 0.02 0.02 0.01 0.01 0.01 0.02 0.03 0.06 0.09 0.10 0.11 0.11
0.00 0.00 0.00 0.01 0.03 0.03 0.02 0.02 0.02 0.02 0.01 0.01 0.06 0.11 0.05 0.02 0.01 0.00 0.00 0.00 0.00 0.00 0.00 0.00 0.00 0.01 0.01 0.01 0.02 0.02 0.02 0.01 0.01 0.01 0.01 0.00 0.00 0.00 0.01 0.03 0.05 0.06 0.08 0.10
0.00 0.00 0.00 0.01 0.01 0.02 0.03 0.03 0.03 0.02 0.01 0.01 0.03 0.10 0.02 0.00 0.00 0.00 0.00 0.00 0.00 0.00 0.00 0.00 0.00 0.00 0.00 0.01 0.01 0.01 0.00 0.00 0.00 0.00 0.00 0.01 0.01 0.01 0.01 0.01 0.02 0.03 0.05 0.07
0.00 0.00 0.00 0.00 0.01 0.01 0.03 0.05 0.03 0.01 0.00 0.02 0.02 0.03 0.01 0.00 0.00 0.00 0.00 0.00 0.00 0.00 0.00 0.00 0.00 0.01 0.01 0.01 0.01 0.02 0.02 0.02 0.03 0.04 0.04 0.04 0.04 0.05 0.05 0.05 0.04 0.04 0.04 0.05
0.00 0.00 0.00 0.00 0.01 0.01 0.03 0.06 0.02 0.00 0.00 0.00 0.00 0.00 0.00 0.00 0.01 0.02 0.02 0.01 0.02 0.02 0.03 0.04 0.04 0.05 0.04 0.04 0.04 0.03 0.03 0.03 0.04 0.04 0.04 0.03 0.03 0.03 0.04 0.04 0.03 0.03 0.03 0.06
0.00 0.00 0.00 0.00 0.00 0.01 0.05 0.03 0.01 0.00 0.00 0.00 0.01 0.02 0.02 0.03 0.05 0.08 0.11 0.12 0.13 0.12 0.10 0.07 0.05 0.03 0.02 0.01 0.01 0.00 0.00 0.00 0.01 0.01 0.02 0.02 0.02 0.02 0.02 0.02 0.03 0.03 0.04 0.06
0.00 0.00 0.00 0.00 0.00 0.03 0.04 0.00 0.00 0.00 0.00 0.01 0.03 0.05 0.09 0.12 0.17 0.23 0.27 0.21 0.11 0.06 0.03 0.01 0.00 0.00 0.00 0.00 0.00 0.00 0.00 0.00 0.00 0.00 0.01 0.01 0.02 0.03 0.04 0.05 0.05 0.07 0.07 0.08
0.00 0.00 0.00 0.00 0.00 0.02 0.01 0.00 0.01 0.02 0.02 0.04 0.10 0.15 0.18 0.18 0.13 0.09 0.06 0.03 0.01 0.01 0.00 0.00 0.00 0.00 0.00 0.00 0.00 0.00 0.00 0.00 0.01 0.02 0.03 0.05 0.06 0.06 0.07 0.09 0.11 0.13 0.13 0.13
0.00 0.00 0.00 0.00 0.00 0.01 0.01 0.02 0.06 0.07 0.12 0.13 0.12 0.09 0.05 0.02 0.01 0.00 0.00 0.00 0.00 0.00 0.00 0.00 0.00 0.00 0.00 0.00 0.00 0.00 0.00 0.01 0.01 0.02 0.04 0.06 0.09 0.11 0.11 0.12 0.14 0.16 0.17 0.18
0.00 0.00 0.00 0.00 0.00 0.00 0.00 0.01 0.03 0.05 0.07 0.03 0.01 0.01 0.00 0.00 0.00 0.00 0.00 0.00 0.00 0.00 0.00 0.00 0.00 0.00 0.00 0.00 0.01 0.02 0.03 0.03 0.03 0.03 0.04 0.05 0.09 0.14 0.15 0.17 0.19 0.21 0.21 0.23
0.00 0.00 0.00 0.00 0.01 0.01 0.00 0.00 0.00 0.00 0.00 0.00 0.00 0.00 0.00 0.00 0.00 0.00 0.00 0.00 0.00 0.00 0.00 0.00 0.00 0.00 0.00 0.01 0.03 0.05 0.06 0.05 0.06 0.07 0.08 0.08 0.12 0.17 0.17 0.21 0.24 0.27 0.29 0.32
0.00 0.00 0.00 0.00 0.01 0.00 0.00 0.00 0.00 0.00 0.00 0.00 0.00 0.00 0.00 0.00 0.00 0.00 0.00 0.00 0.00 0.00 0.00 0.00 0.00 0.00 0.01 0.02 0.05 0.08 0.08 0.08 0.09 0.10 0.10 0.12 0.15 0.24 0.34 0.34 0.29 0.30 0.32 0.33
0.00 0.00 0.00 0.00 0.00 0.00 0.00 0.00 0.00 0.00 0.00 0.00 0.00 0.00 0.00 0.00 0.00 0.00 0.00 0.00 0.00 0.00 0.00 0.00 0.01 0.02 0.03 0.04 0.05 0.08 0.10 0.13 0.15 0.15 0.14 0.15 0.19 0.30 0.51 0.58 0.48 0.39 0.35 0.35
0.00 0.00 0.00 0.00 0.00 0.00 0.00 0.00 0.00 0.00 0.00 0.00 0.00 0.00 0.00 0.00 0.00 0.00 0.00 0.00 0.00 0.00 0.01 0.01 0.03 0.05 0.05 0.05 0.07 0.09 0.12 0.18 0.20 0.19 0.18 0.18 0.22 0.32 0.51 0.63 0.61 0.51 0.47 0.45
0.00 0.00 0.00 0.00 0.00 0.00 0.00 0.00 0.00 0.00 0.00 0.00 0.00 0.00 0.00 0.00 0.00 0.00 0.00 0.00 0.01 0.01 0.03 0.04 0.06 0.07 0.08 0.10 0.12 0.12 0.16 0.22 0.25 0.25 0.23 0.24 0.25 0.31 0.48 0.67 0.71 0.57 0.46 0.44

GEFSCGP_prec_meanprecacc_030.txt.gz
Total_Precipitation_Accumulation
0.00 0.00 0.00 0.00 0.00 0.00 0.00 0.00 0.00 0.00 0.00 0.00 0.00 0.01 0.05 0.08 0.08 0.09 0.11 0.16 0.19 0.24 0.33 0.48 0.70 0.98 1.45 2.13 2.79 3.05 2.84 2.23 1.81 1.56 1.39 1.18 1.00 0.85 0.70 0.59 0.45 0.33 0.28 0.20
0.00 0.00 0.00 0.00 0.00 0.00 0.00 0.00 0.00 0.00 0.00 0.00 0.00 0.01 0.04 0.05 0.06 0.06 0.08 0.11 0.15 0.24 0.40 0.69 1.04 1.46 1.90 2.22 2.42 2.36 2.00 1.44 1.10 0.88 0.74 0.58 0.48 0.44 0.38 0.29 0.22 0.19 0.15 0.11
0.00 0.00 0.00 0.00 0.00 0.00 0.00 0.00 0.00 0.00 0.00 0.00 0.00 0.01 0.03 0.05 0.07 0.09 0.10 0.14 0.24 0.42 0.78 1.33 1.80 2.00 2.00 1.94 1.68 1.28 0.93 0.66 0.57 0.44 0.36 0.25 0.19 0.18 0.17 0.16 0.14 0.11 0.09 0.07
0.00 0.00 0.00 0.00 0.00 0.00 0.00 0.00 0.00 0.00 0.00 0.00 0.00 0.01 0.04 0.09 0.11 0.14 0.20 0.28 0.39 0.62 1.05 1.54 1.84 1.80 1.58 1.27 0.87 0.57 0.43 0.35 0.30 0.25 0.23 0.21 0.16 0.15 0.14 0.14 0.14 0.13 0.09 0.08
0.01 0.01 0.00 0.00 0.00 0.00 0.00 0.00 0.00 0.00 0.00 0.00 0.01 0.01 0.05 0.12 0.13 0.14 0.18 0.22 0.32 0.56 0.80 0.91 0.93 0.88 0.72 0.52 0.46 0.43 0.35 0.35 0.34 0.29 0.25 0.23 0.19 0.17 0.17 0.18 0.18 0.20 0.20 0.16
0.01 0.01 0.01 0.01 0.01 0.00 0.00 0.00 0.00 0.00 0.02 0.05 0.06 0.05 0.09 0.24 0.26 0.16 0.11 0.15 0.30 0.42 0.45 0.39 0.30 0.26 0.24 0.22 0.23 0.24 0.24 0.31 0.37 0.35 0.31 0.27 0.23 0.20 0.18 0.17 0.17 0.19 0.21 0.22
0.03 0.02 0.01 0.02 0.02 0.01 0.00 0.00 0.00 0.02 0.09 0.15 0.10 0.06 0.19 0.39 0.27 0.12 0.05 0.06 0.12 0.24 0.33 0.35 0.30 0.23 0.18 0.15 0.13 0.13 0.13 0.15 0.19 0.22 0.23 0.23 0.23 0.21 0.18 0.17 0.14 0.16 0.17 0.19
0.06 0.04 0.01 0.01 0.02 0.02 0.02 0.01 0.01 0.01 0.01 0.02 0.03 0.11 0.31 0.34 0.17 0.07 0.02 0.02 0.07 0.15 0.21 0.24 0.22 0.17 0.14 0.10 0.08 0.06 0.06 0.07 0.07 0.08 0.10 0.11 0.15 0.16 0.17 0.21 0.17 0.16 0.18 0.19
0.01 0.01 0.01 0.01 0.03 0.03 0.02 0.01 0.01 0.01 0.01 0.01 0.06 0.18 0.26 0.22 0.15 0.06 0.02 0.02 0.03 0.08 0.10 0.10 0.09 0.07 0.06 0.05 0.05 0.04 0.03 0.03 0.03 0.03 0.05 0.06 0.09 0.12 0.14 0.16 0.17 0.16 0.21 0.20
0.00 0.00 0.00 0.01 0.02 0.02 0.02 0.01 0.01 0.02 0.01 0.01 0.04 0.21 0.31 0.24 0.15 0.04 0.02 0.02 0.03 0.05 0.06 0.06 0.05 0.04 0.03 0.02 0.02 0.02 0.02 0.02 0.01 0.01 0.02 0.02 0.04 0.07 0.09 0.10 0.12 0.14 0.16 0.18
0.00 0.00 0.00 0.01 0.02 0.02 0.02 0.01 0.02 0.02 0.02 0.02 0.02 0.12 0.16 0.12 0.06 0.02 0.01 0.01 0.02 0.03 0.03 0.03 0.02 0.02 0.02 0.01 0.01 0.02 0.02 0.02 0.02 0.01 0.01 0.01 0.03 0.04 0.06 0.10 0.12 0.13 0.12 0.12
0.00 0.00 0.00 0.01 0.03 0.03 0.02 0.02 0.03 0.03 0.02 0.01 0.02 0.07 0.07 0.06 0.03 0.01 0.00 0.00 0.00 0.00 0.01 0.01 0.01 0.01 0.01 0.01 0.01 0.02 0.02 0.02 0.02 0.02 0.01 0.01 0.01 0.02 0.03 0.06 0.09 0.10 0.11 0.11
0.00 0.00 0.00 0.01 0.04 0.03 0.03 0.03 0.03 0.02 0.02 0.01 0.06 0.11 0.05 0.02 0.01 0.00 0.00 0.00 0.00 0.00 0.00 0.00 0.00 0.01 0.01 0.01 0.02 0.02 0.02 0.01 0.01 0.01 0.01 0.00 0.00 0.00 0.01 0.03 0.05 0.06 0.08 0.10
0.00 0.00 0.00 0.01 0.01 0.02 0.03 0.04 0.04 0.02 0.01 0.01 0.03 0.10 0.02 0.00 0.00 0.00 0.00 0.00 0.00 0.00 0.00 0.00 0.00 0.00 0.00 0.01 0.01 0.01 0.00 0.00 0.00 0.00 0.00 0.01 0.01 0.01 0.01 0.01 0.02 0.03 0.05 0.07
0.00 0.00 0.00 0.00 0.01 0.02 0.03 0.05 0.03 0.01 0.00 0.02 0.02 0.03 0.01 0.00 0.00 0.00 0.00 0.00 0.00 0.00 0.00 0.00 0.00 0.01 0.01 0.01 0.01 0.02 0.02 0.02 0.03 0.04 0.04 0.04 0.04 0.05 0.05 0.05 0.04 0.04 0.04 0.05
0.00 0.00 0.00 0.00 0.01 0.01 0.03 0.06 0.02 0.00 0.00 0.00 0.00 0.00 0.00 0.00 0.01 0.02 0.02 0.01 0.02 0.02 0.03 0.04 0.04 0.05 0.04 0.04 0.04 0.03 0.03 0.03 0.04 0.04 0.04 0.03 0.03 0.03 0.04 0.04 0.03 0.03 0.03 0.06
0.00 0.00 0.00 0.00 0.00 0.01 0.05 0.03 0.01 0.00 0.00 0.00 0.01 0.02 0.02 0.03 0.05 0.08 0.11 0.12 0.13 0.12 0.10 0.07 0.05 0.03 0.02 0.01 0.01 0.00 0.00 0.00 0.01 0.01 0.02 0.02 0.02 0.03 0.03 0.03 0.03 0.03 0.04 0.06
0.00 0.00 0.00 0.00 0.00 0.03 0.04 0.00 0.00 0.00 0.00 0.01 0.03 0.05 0.09 0.12 0.17 0.23 0.27 0.21 0.11 0.06 0.03 0.01 0.00 0.00 0.00 0.00 0.00 0.00 0.00 0.00 0.00 0.01 0.01 0.02 0.03 0.03 0.05 0.06 0.06 0.08 0.08 0.08
0.00 0.00 0.00 0.00 0.00 0.02 0.01 0.00 0.01 0.02 0.02 0.04 0.10 0.15 0.18 0.18 0.13 0.09 0.06 0.03 0.01 0.01 0.00 0.00 0.00 0.00 0.00 0.00 0.00 0.00 0.00 0.00 0.01 0.02 0.04 0.06 0.07 0.08 0.10 0.12 0.14 0.16 0.16 0.15
0.00 0.00 0.00 0.00 0.00 0.01 0.01 0.02 0.06 0.07 0.12 0.13 0.12 0.09 0.05 0.02 0.01 0.00 0.00 0.00 0.00 0.00 0.00 0.00 0.00 0.00 0.00 0.00 0.00 0.00 0.00 0.01 0.01 0.03 0.05 0.08 0.12 0.16 0.18 0.20 0.22 0.23 0.23 0.21
0.00 0.00 0.00 0.00 0.00 0.00 0.00 0.01 0.03 0.05 0.07 0.03 0.01 0.01 0.00 0.00 0.00 0.00 0.00 0.00 0.00 0.00 0.00 0.00 0.00 0.00 0.00 0.00 0.01 0.02 0.03 0.03 0.04 0.05 0.06 0.08 0.13 0.19 0.21 0.24 0.27 0.29 0.28 0.29
0.00 0.00 0.00 0.00 0.01 0.01 0.00 0.00 0.00 0.00 0.00 0.00 0.00 0.00 0.00 0.00 0.00 0.00 0.00 0.00 0.00 0.00 0.00 0.00 0.00 0.00 0.00 0.01 0.03 0.05 0.06 0.06 0.08 0.09 0.10 0.11 0.16 0.22 0.24 0.29 0.32 0.35 0.37 0.39
0.00 0.00 0.00 0.00 0.01 0.00 0.00 0.00 0.00 0.00 0.00 0.00 0.00 0.00 0.00 0.00 0.00 0.00 0.00 0.00 0.00 0.00 0.00 0.00 0.00 0.00 0.01 0.02 0.05 0.09 0.09 0.10 0.12 0.13 0.13 0.16 0.19 0.29 0.40 0.41 0.38 0.40 0.42 0.41
0.00 0.00 0.00 0.00 0.00 0.00 0.00 0.00 0.00 0.00 0.00 0.00 0.00 0.00 0.00 0.00 0.00 0.00 0.00 0.00 0.00 0.00 0.00 0.00 0.01 0.02 0.03 0.04 0.06 0.09 0.12 0.16 0.19 0.18 0.17 0.18 0.23 0.35 0.56 0.65 0.56 0.49 0.46 0.45
0.00 0.00 0.00 0.00 0.00 0.00 0.00 0.00 0.00 0.00 0.00 0.00 0.00 0.00 0.00 0.00 0.00 0.00 0.00 0.00 0.00 0.00 0.01 0.01 0.03 0.05 0.05 0.06 0.08 0.11 0.16 0.22 0.24 0.22 0.20 0.20 0.26 0.37 0.56 0.69 0.67 0.59 0.56 0.55
0.00 0.00 0.00 0.00 0.00 0.00 0.00 0.00 0.00 0.00 0.00 0.00 0.00 0.00 0.00 0.00 0.00 0.00 0.00 0.00 0.01 0.01 0.03 0.04 0.06 0.08 0.09 0.11 0.13 0.15 0.20 0.26 0.30 0.29 0.25 0.26 0.29 0.35 0.53 0.72 0.78 0.63 0.53 0.53

GEFSCGP_prec_meanprecacc_036.txt.gz
Total_Precipitation_Accumulation
0.00 0.00 0.00 0.00 0.00 0.00 0.00 0.00 0.00 0.00 0.00 0.00 0.00 0.01 0.05 0.08 0.09 0.09 0.12 0.17 0.20 0.25 0.34 0.49 0.72 0.99 1.46 2.14 2.79 3.05 2.84 2.23 1.82 1.57 1.43 1.25 1.09 0.99 0.92 0.84 0.75 0.65 0.62 0.53
0.00 0.00 0.00 0.00 0.00 0.00 0.00 0.00 0.00 0.00 0.00 0.00 0.00 0.02 0.04 0.06 0.07 0.06 0.08 0.11 0.15 0.24 0.41 0.70 1.05 1.46 1.90 2.22 2.42 2.36 2.01 1.44 1.10 0.89 0.75 0.62 0.54 0.53 0.52 0.50 0.49 0.50 0.50 0.48
0.00 0.00 0.00 0.00 0.00 0.00 0.00 0.00 0.00 0.00 0.00 0.00 0.01 0.02 0.03 0.05 0.07 0.09 0.10 0.14 0.24 0.42 0.78 1.33 1.80 2.00 2.00 1.94 1.68 1.28 0.93 0.67 0.57 0.44 0.36 0.27 0.23 0.22 0.23 0.25 0.28 0.31 0.31 0.30
0.00 0.00 0.00 0.00 0.00 0.00 0.00 0.00 0.00 0.00 0.00 0.00 0.01 0.05 0.07 0.10 0.12 0.14 0.21 0.28 0.39 0.62 1.05 1.54 1.84 1.80 1.58 1.27 0.87 0.57 0.43 0.35 0.30 0.25 0.24 0.22 0.18 0.18 0.19 0.20 0.22 0.23 0.22 0.22
0.01 0.01 0.01 0.00 0.00 0.00 0.00 0.00 0.00 0.00 0.00 0.00 0.01 0.05 0.09 0.13 0.14 0.14 0.18 0.22 0.32 0.56 0.80 0.91 0.93 0.88 0.72 0.52 0.46 0.43 0.35 0.35 0.34 0.29 0.25 0.23 0.19 0.18 0.19 0.20 0.21 0.24 0.25 0.23
0.01 0.01 0.01 0.01 0.01 0.01 0.01 0.00 0.01 0.01 0.02 0.07 0.06 0.08 0.15 0.26 0.27 0.17 0.11 0.15 0.30 0.42 0.45 0.39 0.30 0.26 0.24 0.22 0.23 0.24 0.24 0.32 0.37 0.36 0.31 0.27 0.23 0.20 0.18 0.17 0.18 0.20 0.22 0.25
0.03 0.02 0.01 0.02 0.02 0.01 0.01 0.01 0.01 0.02 0.09 0.17 0.11 0.08 0.23 0.40 0.28 0.12 0.05 0.06 0.12 0.24 0.33 0.35 0.30 0.23 0.19 0.15 0.13 0.13 0.13 0.16 0.19 0.22 0.23 0.23 0.23 0.21 0.18 0.17 0.14 0.16 0.17 0.20
0.06 0.04 0.01 0.01 0.02 0.02 0.03 0.02 0.01 0.02 0.02 0.04 0.05 0.16 0.33 0.34 0.17 0.07 0.02 0.02 0.07 0.15 0.21 0.24 0.22 0.17 0.14 0.10 0.08 0.06 0.06 0.07 0.07 0.08 0.10 0.12 0.15 0.16 0.18 0.21 0.17 0.16 0.18 0.19
0.01 0.01 0.01 0.02 0.03 0.03 0.03 0.02 0.01 0.02 0.01 0.03 0.10 0.23 0.27 0.22 0.15 0.06 0.02 0.02 0.03 0.08 0.10 0.10 0.09 0.07 0.06 0.05 0.05 0.04 0.03 0.03 0.03 0.03 0.05 0.06 0.09 0.12 0.14 0.16 0.17 0.16 0.21 0.20
0.00 0.00 0.00 0.01 0.02 0.03 0.02 0.02 0.01 0.02 0.02 0.03 0.07 0.26 0.36 0.25 0.15 0.04 0.02 0.02 0.03 0.05 0.06 0.06 0.05 0.04 0.03 0.02 0.02 0.02 0.02 0.02 0.01 0.01 0.02 0.02 0.04 0.07 0.09 0.10 0.12 0.14 0.16 0.18
0.00 0.00 0.00 0.01 0.02 0.02 0.02 0.01 0.02 0.02 0.02 0.03 0.03 0.14 0.17 0.13 0.06 0.02 0.01 0.01 0.02 0.03 0.03 0.03 0.02 0.02 0.02 0.01 0.01 0.02 0.02 0.02 0.02 0.01 0.01 0.01 0.03 0.04 0.06 0.10 0.12 0.13 0.12 0.12
0.00 0.00 0.00 0.01 0.03 0.03 0.02 0.02 0.03 0.03 0.02 0.01 0.02 0.07 0.07 0.06 0.03 0.01 0.00 0.00 0.00 0.00 0.01 0.01 0.01 0.01 0.01 0.01 0.01 0.02 0.02 0.02 0.02 0.02 0.01 0.01 0.01 0.02 0.03 0.06 0.09 0.10 0.11 0.11
0.00 0.00 0.00 0.01 0.04 0.03 0.03 0.03 0.03 0.02 0.02 0.01 0.06 0.11 0.05 0.02 0.01 0.00 0.00 0.00 0.00 0.00 0.00 0.00 0.00 0.01 0.01 0.01 0.02 0.02 0.02 0.01 0.01 0.01 0.01 0.00 0.00 0.00 0.01 0.03 0.05 0.06 0.08 0.10
0.00 0.00 0.00 0.01 0.01 0.02 0.03 0.04 0.04 0.02 0.01 0.01 0.03 0.10 0.02 0.00 0.00 0.00 0.00 0.00 0.00 0.00 0.00 0.00 0.00 0.00 0.00 0.01 0.01 0.01 0.00 0.00 0.00 0.00 0.00 0.01 0.01 0.01 0.01 0.01 0.02 0.03 0.05 0.07
0.00 0.00 0.00 0.00 0.01 0.02 0.03 0.05 0.03 0.01 0.00 0.02 0.02 0.03 0.01 0.00 0.00 0.00 0.00 0.00 0.00 0.00 0.00 0.00 0.00 0.01 0.01 0.01 0.01 0.02 0.02 0.02 0.03 0.04 0.04 0.04 0.04 0.05 0.05 0.05 0.04 0.04 0.05 0.06
0.00 0.00 0.00 0.00 0.01 0.01 0.03 0.06 0.02 0.00 0.00 0.00 0.00 0.00 0.00 0.00 0.01 0.02 0.02 0.01 0.02 0.02 0.03 0.04 0.04 0.05 0.04 0.04 0.04 0.03 0.03 0.03 0.04 0.04 0.04 0.03 0.04 0.04 0.04 0.04 0.04 0.04 0.05 0.08
0.00 0.00 0.00 0.00 0.00 0.01 0.05 0.03 0.01 0.00 0.00 0.00 0.01 0.02 0.02 0.03 0.05 0.08 0.11 0.12 0.13 0.12 0.10 0.07 0.05 0.03 0.02 0.01 0.01 0.00 0.00 0.00 0.01 0.02 0.02 0.02 0.03 0.04 0.04 0.04 0.05 0.06 0.08 0.11
0.00 0.00 0.00 0.00 0.00 0.03 0.04 0.00 0.00 0.00 0.00 0.01 0.03 0.05 0.09 0.12 0.17 0.23 0.27 0.21 0.11 0.06 0.03 0.01 0.00 0.00 0.00 0.00 0.00 0.00 0.00 0.00 0.01 0.01 0.02 0.03 0.04 0.05 0.07 0.08 0.10 0.12 0.14 0.16
0.00 0.00 0.00 0.00 0.00 0.02 0.01 0.00 0.01 0.02 0.02 0.04 0.10 0.15 0.18 0.18 0.13 0.09 0.06 0.03 0.01 0.01 0.00 0.00 0.00 0.00 0.00 0.00 0.00 0.00 0.00 0.00 0.01 0.03 0.05 0.08 0.09 0.11 0.14 0.16 0.19 0.22 0.24 0.23
0.00 0.00 0.00 0.00 0.00 0.01 0.01 0.02 0.06 0.07 0.12 0.13 0.12 0.09 0.05 0.02 0.01 0.00 0.00 0.00 0.00 0.00 0.00 0.00 0.00 0.00 0.00 0.00 0.00 0.00 0.01 0.01 0.02 0.04 0.07 0.10 0.15 0.20 0.22 0.25 0.29 0.31 0.32 0.31
0.00 0.00 0.00 0.00 0.00 0.00 0.00 0.01 0.03 0.05 0.07 0.03 0.01 0.01 0.00 0.00 0.00 0.00 0.00 0.00 0.00 0.00 0.00 0.00 0.00 0.00 0.01 0.00 0.01 0.02 0.03 0.04 0.05 0.06 0.08 0.10 0.16 0.24 0.27 0.30 0.34 0.37 0.38 0.38
0.00 0.00 0.00 0.00 0.01 0.01 0.00 0.00 0.00 0.00 0.00 0.00 0.00 0.00 0.00 0.00 0.00 0.00 0.00 0.00 0.00 0.00 0.00 0.00 0.00 0.00 0.01 0.01 0.03 0.06 0.07 0.07 0.09 0.11 0.12 0.13 0.19 0.26 0.28 0.36 0.39 0.43 0.46 0.48
0.00 0.00 0.00 0.00 0.01 0.00 0.00 0.00 0.00 0.00 0.00 0.00 0.00 0.00 0.00 0.00 0.00 0.00 0.00 0.00 0.00 0.00 0.00 0.00 0.00 0.00 0.01 0.02 0.06 0.10 0.11 0.12 0.14 0.15 0.16 0.18 0.22 0.32 0.45 0.48 0.44 0.47 0.50 0.50
0.00 0.00 0.00 0.00 0.00 0.00 0.00 0.00 0.00 0.00 0.00 0.00 0.00 0.00 0.00 0.00 0.00 0.00 0.00 0.00 0.00 0.00 0.00 0.00 0.01 0.02 0.03 0.04 0.06 0.10 0.14 0.18 0.21 0.21 0.19 0.21 0.26 0.38 0.60 0.70 0.62 0.56 0.55 0.56
0.00 0.00 0.00 0.00 0.00 0.00 0.00 0.00 0.00 0.00 0.00 0.00 0.00 0.00 0.00 0.00 0.00 0.00 0.00 0.00 0.00 0.00 0.01 0.01 0.03 0.05 0.05 0.06 0.08 0.12 0.17 0.24 0.27 0.25 0.22 0.23 0.28 0.40 0.59 0.73 0.72 0.64 0.62 0.63
0.00 0.00 0.00 0.00 0.00 0.00 0.00 0.00 0.00 0.00 0.00 0.00 0.00 0.00 0.00 0.00 0.00 0.00 0.00 0.00 0.01 0.01 0.03 0.04 0.06 0.08 0.09 0.11 0.14 0.16 0.21 0.29 0.33 0.31 0.27 0.28 0.31 0.38 0.56 0.76 0.82 0.68 0.57 0.55

GEFSCGP_prec_meanprecacc_042.txt.gz
Total_Precipitation_Accumulation
0.00 0.00 0.00 0.00 0.00 0.00 0.01 0.02 0.05 0.04 0.03 0.04 0.01 0.02 0.05 0.08 0.09 0.09 0.12 0.17 0.20 0.25 0.35 0.49 0.72 1.00 1.46 2.14 2.79 3.05 2.84 2.23 1.82 1.57 1.44 1.26 1.11 1.01 0.94 0.87 0.77 0.69 0.69 0.64
0.00 0.01 0.00 0.00 0.00 0.00 0.00 0.01 0.04 0.05 0.03 0.01 0.01 0.02 0.04 0.06 0.07 0.06 0.08 0.11 0.15 0.25 0.41 0.70 1.05 1.46 1.90 2.22 2.42 2.36 2.01 1.44 1.10 0.89 0.75 0.62 0.54 0.54 0.54 0.51 0.51 0.53 0.54 0.54
0.00 0.01 0.00 0.00 0.00 0.00 0.00 0.01 0.06 0.09 0.05 0.01 0.03 0.08 0.06 0.06 0.07 0.09 0.10 0.14 0.24 0.42 0.78 1.33 1.80 2.00 2.00 1.94 1.68 1.28 0.93 0.67 0.57 0.44 0.36 0.27 0.23 0.23 0.24 0.26 0.29 0.32 0.33 0.33
0.00 0.00 0.00 0.00 0.00 0.00 0.02 0.01 0.01 0.02 0.03 0.07 0.09 0.20 0.19 0.16 0.13 0.14 0.21 0.28 0.39 0.62 1.05 1.54 1.84 1.80 1.58 1.27 0.87 0.57 0.43 0.35 0.30 0.25 0.24 0.22 0.18 0.18 0.19 0.20 0.22 0.23 0.22 0.23
0.01 0.01 0.01 0.00 0.01 0.00 0.01 0.00 0.01 0.02 0.04 0.08 0.16 0.30 0.36 0.29 0.24 0.17 0.18 0.22 0.32 0.56 0.80 0.91 0.93 0.88 0.72 0.52 0.46 0.43 0.35 0.35 0.35 0.29 0.26 0.23 0.19 0.18 0.19 0.20 0.21 0.24 0.25 0.23
0.01 0.01 0.01 0.01 0.01 0.01 0.01 0.01 0.02 0.04 0.09 0.25 0.37 0.42 0.47 0.47 0.42 0.20 0.12 0.15 0.30 0.42 0.45 0.39 0.30 0.26 0.24 0.22 0.23 0.24 0.24 0.32 0.38 0.36 0.31 0.28 0.24 0.21 0.19 0.17 0.18 0.20 0.22 0.25
0.05 0.03 0.01 0.02 0.02 0.02 0.01 0.01 0.08 0.25 0.41 0.48 0.33 0.29 0.46 0.48 0.30 0.13 0.05 0.06 0.12 0.24 0.33 0.35 0.30 0.23 0.19 0.15 0.13 0.13 0.13 0.16 0.19 0.23 0.24 0.24 0.24 0.21 0.19 0.17 0.14 0.16 0.17 0.20
0.10 0.07 0.02 0.01 0.02 0.03 0.03 0.02 0.04 0.11 0.13 0.17 0.17 0.36 0.50 0.36 0.18 0.07 0.02 0.02 0.07 0.15 0.21 0.24 0.22 0.17 0.14 0.10 0.08 0.06 0.06 0.07 0.07 0.08 0.10 0.12 0.15 0.16 0.18 0.21 0.17 0.16 0.18 0.19
0.02 0.02 0.01 0.02 0.03 0.03 0.03 0.02 0.02 0.02 0.02 0.07 0.19 0.37 0.35 0.23 0.15 0.06 0.02 0.02 0.03 0.08 0.10 0.10 0.09 0.07 0.06 0.05 0.05 0.04 0.03 0.03 0.03 0.03 0.05 0.06 0.09 0.12 0.15 0.17 0.17 0.17 0.21 0.21
0.00 0.00 0.01 0.01 0.02 0.03 0.02 0.02 0.01 0.02 0.03 0.04 0.10 0.35 0.44 0.27 0.15 0.04 0.02 0.02 0.03 0.05 0.06 0.06 0.05 0.04 0.03 0.02 0.02 0.02 0.02 0.02 0.01 0.01 0.02 0.02 0.04 0.07 0.10 0.10 0.12 0.14 0.16 0.18
0.00 0.00 0.00 0.01 0.02 0.03 0.02 0.01 0.02 0.02 0.03 0.03 0.04 0.16 0.18 0.13 0.06 0.02 0.01 0.01 0.02 0.03 0.03 0.03 0.02 0.02 0.02 0.01 0.01 0.02 0.02 0.02 0.02 0.01 0.01 0.01 0.03 0.04 0.06 0.10 0.13 0.14 0.13 0.12
0.00 0.00 0.01 0.01 0.03 0.03 0.02 0.02 0.03 0.03 0.02 0.01 0.02 0.07 0.07 0.06 0.03 0.01 0.00 0.00 0.00 0.00 0.01 0.01 0.01 0.01 0.01 0.01 0.01 0.02 0.02 0.02 0.02 0.02 0.02 0.01 0.01 0.02 0.04 0.07 0.10 0.11 0.11 0.11
0.00 0.00 0.01 0.04 0.06 0.04 0.03 0.03 0.03 0.02 0.02 0.01 0.06 0.11 0.05 0.02 0.01 0.00 0.00 0.00 0.00 0.00 0.00 0.00 0.00 0.01 0.01 0.01 0.02 0.02 0.02 0.01 0.01 0.01 0.01 0.01 0.01 0.01 0.02 0.03 0.05 0.07 0.09 0.11
0.00 0.00 0.01 0.02 0.02 0.02 0.03 0.04 0.04 0.02 0.01 0.01 0.03 0.10 0.02 0.00 0.00 0.00 0.00 0.00 0.00 0.00 0.00 0.00 0.00 0.00 0.00 0.01 0.01 0.01 0.00 0.00 0.00 0.00 0.01 0.01 0.02 0.02 0.02 0.02 0.03 0.04 0.06 0.09
0.00 0.00 0.00 0.00 0.01 0.02 0.03 0.05 0.03 0.01 0.00 0.02 0.02 0.03 0.01 0.00 0.00 0.00 0.00 0.00 0.00 0.00 0.00 0.00 0.00 0.01 0.01 0.01 0.01 0.02 0.02 0.03 0.03 0.04 0.04 0.05 0.05 0.06 0.06 0.06 0.06 0.06 0.07 0.08
0.00 0.00 0.00 0.00 0.01 0.01 0.03 0.06 0.02 0.00 0.00 0.00 0.00 0.00 0.00 0.00 0.01 0.02 0.02 0.01 0.02 0.02 0.03 0.04 0.04 0.05 0.04 0.04 0.04 0.04 0.04 0.04 0.05 0.05 0.04 0.04 0.05 0.05 0.06 0.06 0.06 0.06 0.08 0.11
0.00 0.00 0.00 0.00 0.01 0.01 0.06 0.04 0.01 0.00 0.00 0.00 0.01 0.02 0.02 0.03 0.05 0.08 0.11 0.12 0.13 0.12 0.10 0.07 0.05 0.03 0.02 0.01 0.01 0.01 0.01 0.01 0.02 0.02 0.03 0.04 0.05 0.05 0.06 0.06 0.07 0.09 0.12 0.16
0.00 0.00 0.00 0.00 0.00 0.04 0.04 0.00 0.00 0.00 0.00 0.01 0.03 0.05 0.09 0.12 0.17 0.23 0.27 0.21 0.11 0.06 0.03 0.01 0.00 0.00 0.00 0.00 0.00 0.01 0.01 0.01 0.02 0.02 0.03 0.04 0.06 0.07 0.08 0.11 0.13 0.17 0.20 0.22
0.00 0.00 0.00 0.00 0.00 0.02 0.01 0.01 0.01 0.02 0.02 0.04 0.10 0.15 0.18 0.18 0.13 0.09 0.06 0.03 0.01 0.01 0.00 0.00 0.00 0.00 0.00 0.01 0.01 0.01 0.01 0.01 0.02 0.04 0.07 0.09 0.11 0.13 0.16 0.19 0.23 0.28 0.31 0.30
0.00 0.00 0.00 0.00 0.00 0.01 0.01 0.02 0.06 0.07 0.12 0.13 0.12 0.09 0.05 0.02 0.01 0.00 0.00 0.00 0.00 0.00 0.00 0.00 0.00 0.00 0.01 0.01 0.01 0.02 0.02 0.03 0.04 0.05 0.08 0.11 0.17 0.22 0.26 0.30 0.34 0.37 0.40 0.39
0.00 0.00 0.00 0.00 0.00 0.00 0.01 0.01 0.03 0.05 0.07 0.03 0.01 0.01 0.00 0.00 0.00 0.00 0.00 0.00 0.00 0.00 0.00 0.00 0.00 0.00 0.01 0.02 0.03 0.04 0.05 0.06 0.06 0.07 0.09 0.12 0.18 0.28 0.31 0.36 0.41 0.45 0.47 0.48
0.00 0.00 0.00 0.00 0.01 0.01 0.01 0.00 0.00 0.00 0.00 0.00 0.00 0.00 0.00 0.00 0.00 0.00 0.00 0.00 0.00 0.00 0.00 0.00 0.00 0.00 0.01 0.03 0.06 0.08 0.09 0.09 0.10 0.12 0.14 0.15 0.21 0.29 0.32 0.42 0.46 0.51 0.55 0.57
0.00 0.00 0.00 0.00 0.01 0.00 0.00 0.00 0.00 0.00 0.00 0.00 0.00 0.00 0.00 0.00 0.00 0.00 0.00 0.00 0.00 0.00 0.00 0.00 0.00 0.01 0.02 0.04 0.08 0.12 0.12 0.13 0.15 0.17 0.17 0.21 0.25 0.37 0.51 0.55 0.53 0.57 0.61 0.61
0.00 0.00 0.00 0.00 0.00 0.00 0.00 0.00 0.00 0.00 0.00 0.00 0.00 0.00 0.00 0.00 0.00 0.00 0.00 0.00 0.00 0.00 0.00 0.00 0.01 0.02 0.04 0.05 0.08 0.12 0.15 0.19 0.22 0.22 0.21 0.23 0.29 0.42 0.66 0.79 0.73 0.67 0.67 0.66
0.00 0.00 0.00 0.00 0.00 0.00 0.00 0.00 0.00 0.00 0.00 0.00 0.00 0.00 0.00 0.00 0.00 0.00 0.00 0.00 0.00 0.00 0.01 0.01 0.03 0.05 0.06 0.07 0.09 0.13 0.18 0.25 0.28 0.26 0.24 0.25 0.32 0.46 0.67 0.84 0.83 0.70 0.68 0.66
0.00 0.00 0.00 0.00 0.00 0.00 0.00 0.00 0.00 0.00 0.00 0.00 0.00 0.00 0.00 0.00 0.00 0.00 0.00 0.00 0.01 0.01 0.03 0.04 0.06 0.08 0.10 0.12 0.15 0.17 0.22 0.29 0.35 0.33 0.29 0.30 0.35 0.45 0.65 0.88 0.95 0.75 0.58 0.55

GEFSCGP_prec_meanprecacc_048.txt.gz
Total_Precipitation_Accumulation
0.00 0.00 0.00 0.01 0.00 0.01 0.01 0.03 0.07 0.07 0.08 0.15 0.21 0.25 0.28 0.25 0.21 0.17 0.15 0.18 0.21 0.25 0.35 0.49 0.72 1.00 1.47 2.14 2.80 3.05 2.85 2.23 1.82 1.57 1.44 1.26 1.11 1.01 0.94 0.87 0.78 0.69 0.69 0.64
0.01 0.01 0.01 0.01 0.01 0.01 0.02 0.03 0.08 0.10 0.07 0.07 0.16 0.34 0.40 0.41 0.32 0.19 0.13 0.13 0.16 0.25 0.41 0.70 1.05 1.46 1.91 2.22 2.42 2.36 2.01 1.44 1.10 0.89 0.75 0.62 0.54 0.54 0.54 0.51 0.51 0.53 0.54 0.54
0.02 0.03 0.01 0.01 0.01 0.02 0.03 0.03 0.09 0.12 0.07 0.07 0.16 0.41 0.49 0.45 0.36 0.22 0.15 0.15 0.24 0.42 0.78 1.33 1.80 2.00 2.00 1.94 1.68 1.28 0.93 0.67 0.57 0.44 0.36 0.27 0.23 0.23 0.24 0.26 0.29 0.32 0.33 0.33
0.01 0.02 0.01 0.01 0.02 0.03 0.04 0.03 0.03 0.03 0.05 0.15 0.27 0.52 0.52 0.48 0.40 0.25 0.25 0.30 0.40 0.63 1.05 1.54 1.84 1.80 1.58 1.27 0.87 0.57 0.43 0.35 0.30 0.25 0.24 0.22 0.18 0.18 0.19 0.20 0.22 0.23 0.22 0.23
0.02 0.02 0.02 0.02 0.02 0.02 0.02 0.02 0.02 0.04 0.07 0.13 0.26 0.47 0.62 0.59 0.55 0.27 0.22 0.24 0.33 0.57 0.80 0.91 0.94 0.88 0.72 0.52 0.46 0.43 0.35 0.35 0.35 0.29 0.26 0.23 0.19 0.18 0.19 0.20 0.21 0.24 0.25 0.23
0.02 0.01 0.01 0.01 0.02 0.01 0.02 0.02 0.04 0.07 0.12 0.30 0.43 0.54 0.71 0.69 0.57 0.27 0.15 0.18 0.31 0.42 0.46 0.39 0.31 0.26 0.24 0.22 0.23 0.24 0.24 0.32 0.38 0.36 0.31 0.28 0.24 0.21 0.19 0.17 0.18 0.20 0.22 0.25
0.07 0.04 0.02 0.03 0.03 0.02 0.02 0.03 0.11 0.29 0.47 0.55 0.39 0.42 0.71 0.72 0.45 0.20 0.09 0.08 0.14 0.25 0.33 0.35 0.30 0.23 0.19 0.15 0.14 0.13 0.13 0.16 0.19 0.23 0.24 0.24 0.24 0.21 0.19 0.17 0.14 0.16 0.17 0.20
0.12 0.08 0.03 0.02 0.03 0.03 0.03 0.03 0.06 0.15 0.19 0.26 0.30 0.68 0.86 0.47 0.24 0.11 0.05 0.03 0.08 0.16 0.21 0.24 0.22 0.18 0.14 0.10 0.08 0.06 0.06 0.07 0.07 0.08 0.10 0.12 0.15 0.16 0.18 0.21 0.17 0.16 0.18 0.19
0.02 0.03 0.02 0.02 0.03 0.03 0.03 0.02 0.02 0.03 0.05 0.14 0.32 0.61 0.52 0.26 0.18 0.07 0.03 0.02 0.04 0.08 0.10 0.10 0.09 0.07 0.06 0.05 0.05 0.04 0.03 0.03 0.03 0.03 0.05 0.06 0.09 0.13 0.15 0.17 0.17 0.17 0.21 0.21
0.00 0.00 0.01 0.01 0.02 0.03 0.02 0.02 0.01 0.02 0.04 0.07 0.20 0.50 0.53 0.28 0.15 0.04 0.02 0.02 0.03 0.05 0.06 0.06 0.05 0.04 0.03 0.02 0.02 0.02 0.02 0.02 0.01 0.01 0.02 0.02 0.04 0.07 0.10 0.10 0.12 0.14 0.16 0.18
0.00 0.00 0.01 0.01 0.02 0.03 0.02 0.01 0.02 0.02 0.03 0.03 0.08 0.22 0.19 0.13 0.06 0.02 0.01 0.01 0.02 0.03 0.03 0.03 0.02 0.02 0.02 0.01 0.01 0.02 0.02 0.02 0.02 0.01 0.01 0.01 0.03 0.04 0.06 0.10 0.13 0.14 0.13 0.12
0.00 0.00 0.01 0.02 0.03 0.03 0.02 0.02 0.03 0.03 0.02 0.01 0.02 0.08 0.07 0.06 0.03 0.01 0.00 0.00 0.00 0.00 0.01 0.01 0.01 0.01 0.01 0.01 0.01 0.02 0.02 0.02 0.02 0.02 0.02 0.01 0.01 0.02 0.04 0.07 0.10 0.11 0.12 0.11
0.00 0.00 0.02 0.05 0.06 0.04 0.03 0.03 0.03 0.02 0.02 0.01 0.06 0.11 0.05 0.02 0.01 0.00 0.00 0.00 0.00 0.00 0.00 0.00 0.00 0.01 0.01 0.01 0.02 0.02 0.02 0.01 0.01 0.01 0.01 0.01 0.01 0.01 0.02 0.03 0.05 0.07 0.09 0.11
0.00 0.00 0.01 0.02 0.02 0.02 0.03 0.04 0.04 0.02 0.01 0.01 0.03 0.10 0.02 0.00 0.00 0.00 0.00 0.00 0.00 0.00 0.00 0.00 0.00 0.00 0.00 0.01 0.01 0.01 0.00 0.00 0.00 0.01 0.01 0.01 0.02 0.02 0.02 0.02 0.03 0.04 0.07 0.09
0.00 0.00 0.00 0.00 0.01 0.02 0.03 0.05 0.03 0.01 0.00 0.02 0.02 0.03 0.01 0.00 0.00 0.00 0.00 0.00 0.00 0.00 0.00 0.00 0.00 0.01 0.01 0.01 0.01 0.02 0.02 0.03 0.03 0.04 0.04 0.05 0.05 0.06 0.06 0.06 0.06 0.06 0.07 0.08
0.00 0.00 0.00 0.00 0.01 0.01 0.03 0.06 0.03 0.01 0.00 0.00 0.00 0.00 0.00 0.00 0.01 0.02 0.02 0.01 0.02 0.02 0.03 0.04 0.04 0.05 0.04 0.04 0.04 0.04 0.04 0.04 0.05 0.05 0.05 0.04 0.05 0.05 0.06 0.06 0.06 0.06 0.08 0.11
0.00 0.00 0.00 0.00 0.01 0.01 0.06 0.05 0.02 0.01 0.00 0.00 0.01 0.02 0.02 0.03 0.05 0.08 0.11 0.12 0.13 0.12 0.10 0.07 0.05 0.03 0.02 0.01 0.01 0.01 0.01 0.01 0.02 0.03 0.03 0.04 0.05 0.05 0.06 0.06 0.07 0.09 0.12 0.16
0.00 0.00 0.00 0.00 0.00 0.04 0.04 0.01 0.01 0.01 0.01 0.01 0.03 0.05 0.09 0.12 0.17 0.23 0.27 0.21 0.11 0.06 0.03 0.01 0.00 0.00 0.00 0.00 0.00 0.01 0.01 0.01 0.02 0.02 0.03 0.04 0.06 0.07 0.08 0.11 0.13 0.17 0.20 0.22
0.00 0.00 0.00 0.00 0.00 0.02 0.01 0.02 0.03 0.03 0.02 0.04 0.10 0.15 0.18 0.18 0.13 0.09 0.06 0.03 0.01 0.01 0.00 0.00 0.00 0.00 0.00 0.01 0.01 0.01 0.01 0.02 0.02 0.04 0.07 0.09 0.11 0.13 0.16 0.20 0.24 0.28 0.31 0.30
0.00 0.00 0.00 0.00 0.01 0.03 0.02 0.03 0.07 0.07 0.12 0.13 0.12 0.09 0.05 0.02 0.01 0.00 0.00 0.00 0.00 0.00 0.00 0.00 0.00 0.00 0.01 0.01 0.02 0.02 0.02 0.03 0.04 0.05 0.08 0.11 0.17 0.23 0.26 0.30 0.34 0.38 0.40 0.39
0.00 0.00 0.00 0.00 0.01 0.02 0.03 0.02 0.03 0.05 0.07 0.03 0.01 0.01 0.00 0.00 0.00 0.00 0.00 0.00 0.00 0.00 0.00 0.00 0.00 0.00 0.01 0.02 0.03 0.04 0.06 0.06 0.06 0.07 0.09 0.12 0.18 0.28 0.31 0.36 0.41 0.46 0.47 0.48
0.00 0.00 0.00 0.00 0.03 0.02 0.01 0.01 0.00 0.00 0.00 0.00 0.00 0.00 0.00 0.00 0.00 0.00 0.00 0.00 0.00 0.00 0.00 0.00 0.00 0.00 0.01 0.03 0.06 0.08 0.10 0.09 0.10 0.12 0.14 0.15 0.22 0.30 0.32 0.42 0.46 0.52 0.56 0.58
0.00 0.00 0.00 0.00 0.01 0.00 0.00 0.00 0.00 0.00 0.00 0.00 0.00 0.00 0.00 0.00 0.00 0.00 0.00 0.00 0.00 0.00 0.00 0.00 0.00 0.01 0.02 0.04 0.08 0.12 0.13 0.13 0.15 0.17 0.17 0.21 0.25 0.37 0.52 0.56 0.53 0.57 0.62 0.62
0.00 0.00 0.00 0.00 0.00 0.00 0.00 0.00 0.00 0.00 0.00 0.00 0.00 0.00 0.00 0.00 0.00 0.00 0.00 0.00 0.00 0.00 0.00 0.00 0.01 0.02 0.04 0.05 0.08 0.12 0.15 0.19 0.22 0.22 0.21 0.23 0.30 0.43 0.67 0.80 0.74 0.68 0.68 0.67
0.00 0.00 0.00 0.00 0.00 0.00 0.00 0.00 0.00 0.00 0.00 0.00 0.00 0.00 0.00 0.00 0.00 0.00 0.00 0.00 0.00 0.00 0.01 0.01 0.03 0.05 0.06 0.07 0.09 0.13 0.18 0.25 0.28 0.26 0.24 0.25 0.32 0.46 0.68 0.85 0.85 0.71 0.69 0.66
0.00 0.00 0.00 0.00 0.00 0.00 0.00 0.00 0.00 0.00 0.00 0.00 0.00 0.00 0.00 0.00 0.00 0.00 0.00 0.00 0.01 0.01 0.03 0.04 0.06 0.08 0.10 0.12 0.15 0.17 0.22 0.29 0.35 0.34 0.29 0.30 0.35 0.46 0.66 0.89 0.96 0.76 0.58 0.56

GEFSCGP_prec_meanprecacc_054.txt.gz
Total_Precipitation_Accumulation
0.00 0.00 0.00 0.01 0.00 0.01 0.01 0.03 0.08 0.07 0.08 0.15 0.21 0.27 0.32 0.31 0.28 0.25 0.24 0.26 0.25 0.27 0.36 0.51 0.74 1.01 1.47 2.15 2.80 3.05 2.85 2.23 1.82 1.57 1.44 1.26 1.11 1.01 0.94 0.87 0.78 0.69 0.69 0.64
0.01 0.02 0.01 0.01 0.01 0.01 0.02 0.03 0.09 0.10 0.08 0.08 0.17 0.35 0.43 0.45 0.37 0.26 0.22 0.20 0.20 0.27 0.42 0.70 1.05 1.46 1.91 2.22 2.42 2.36 2.01 1.44 1.10 0.89 0.75 0.62 0.54 0.54 0.54 0.51 0.51 0.53 0.54 0.54
0.02 0.03 0.01 0.01 0.02 0.03 0.04 0.04 0.09 0.13 0.08 0.07 0.17 0.43 0.51 0.47 0.39 0.27 0.21 0.20 0.28 0.43 0.79 1.33 1.81 2.01 2.00 1.94 1.68 1.28 0.93 0.67 0.57 0.44 0.36 0.27 0.23 0.23 0.24 0.26 0.29 0.32 0.33 0.33
0.01 0.03 0.02 0.02 0.03 0.04 0.05 0.04 0.03 0.04 0.05 0.16 0.28 0.53 0.53 0.49 0.44 0.29 0.29 0.34 0.43 0.64 1.06 1.55 1.85 1.81 1.58 1.28 0.88 0.57 0.44 0.35 0.30 0.25 0.24 0.22 0.18 0.18 0.19 0.20 0.22 0.23 0.22 0.23
0.02 0.02 0.03 0.03 0.03 0.03 0.03 0.03 0.02 0.05 0.09 0.14 0.27 0.47 0.62 0.59 0.56 0.29 0.24 0.26 0.35 0.58 0.81 0.91 0.94 0.89 0.72 0.53 0.47 0.43 0.35 0.35 0.35 0.29 0.26 0.23 0.19 0.18 0.19 0.20 0.21 0.24 0.25 0.23
0.02 0.02 0.02 0.02 0.02 0.02 0.03 0.03 0.05 0.09 0.13 0.30 0.43 0.54 0.71 0.69 0.58 0.28 0.16 0.19 0.32 0.43 0.46 0.40 0.31 0.26 0.24 0.22 0.23 0.24 0.24 0.32 0.38 0.36 0.31 0.28 0.24 0.21 0.19 0.17 0.18 0.20 0.22 0.25
0.07 0.04 0.03 0.03 0.03 0.03 0.03 0.04 0.11 0.30 0.47 0.55 0.39 0.42 0.71 0.72 0.45 0.21 0.10 0.09 0.14 0.25 0.33 0.35 0.30 0.23 0.19 0.15 0.14 0.13 0.13 0.16 0.19 0.23 0.24 0.24 0.24 0.21 0.19 0.17 0.14 0.16 0.17 0.20
0.12 0.09 0.03 0.02 0.03 0.03 0.03 0.03 0.07 0.15 0.19 0.27 0.30 0.68 0.86 0.47 0.24 0.12 0.05 0.03 0.08 0.16 0.21 0.24 0.22 0.18 0.14 0.10 0.08 0.06 0.06 0.07 0.07 0.08 0.10 0.12 0.15 0.16 0.18 0.21 0.17 0.16 0.18 0.19
0.02 0.03 0.03 0.03 0.04 0.04 0.03 0.02 0.02 0.03 0.05 0.14 0.32 0.61 0.52 0.26 0.18 0.07 0.03 0.02 0.04 0.08 0.10 0.10 0.09 0.07 0.06 0.05 0.05 0.04 0.03 0.03 0.03 0.03 0.05 0.06 0.09 0.13 0.15 0.17 0.17 0.17 0.21 0.21
0.00 0.00 0.01 0.02 0.03 0.03 0.03 0.02 0.02 0.02 0.04 0.07 0.20 0.50 0.53 0.28 0.15 0.04 0.02 0.02 0.03 0.05 0.06 0.06 0.05 0.04 0.03 0.02 0.02 0.02 0.02 0.02 0.01 0.01 0.02 0.02 0.04 0.07 0.10 0.10 0.12 0.14 0.16 0.18
0.00 0.00 0.01 0.01 0.03 0.03 0.02 0.02 0.02 0.02 0.03 0.03 0.08 0.22 0.19 0.13 0.06 0.02 0.01 0.01 0.02 0.03 0.03 0.03 0.02 0.02 0.02 0.01 0.01 0.02 0.02 0.02 0.02 0.01 0.01 0.01 0.03 0.04 0.06 0.10 0.13 0.14 0.13 0.12
0.00 0.00 0.01 0.02 0.03 0.03 0.02 0.02 0.03 0.03 0.02 0.01 0.02 0.08 0.07 0.06 0.03 0.01 0.00 0.00 0.00 0.00 0.01 0.01 0.01 0.01 0.01 0.01 0.01 0.02 0.02 0.02 0.02 0.02 0.02 0.01 0.01 0.02 0.04 0.07 0.10 0.11 0.12 0.11
0.00 0.01 0.02 0.05 0.07 0.04 0.03 0.03 0.03 0.02 0.02 0.01 0.06 0.11 0.05 0.02 0.01 0.00 0.00 0.00 0.00 0.00 0.00 0.00 0.00 0.01 0.01 0.01 0.02 0.02 0.02 0.01 0.01 0.01 0.01 0.01 0.01 0.01 0.02 0.03 0.05 0.07 0.09 0.11
0.00 0.00 0.01 0.02 0.03 0.03 0.03 0.04 0.04 0.02 0.01 0.01 0.03 0.10 0.02 0.00 0.00 0.00 0.00 0.00 0.00 0.00 0.00 0.00 0.00 0.00 0.00 0.01 0.01 0.01 0.00 0.00 0.00 0.01 0.01 0.01 0.02 0.02 0.02 0.02 0.03 0.04 0.07 0.09
0.00 0.00 0.00 0.00 0.01 0.02 0.04 0.05 0.04 0.01 0.01 0.02 0.02 0.03 0.01 0.00 0.00 0.00 0.00 0.00 0.00 0.00 0.00 0.00 0.00 0.01 0.01 0.01 0.01 0.02 0.02 0.03 0.03 0.04 0.04 0.05 0.05 0.06 0.06 0.06 0.06 0.06 0.07 0.08
0.00 0.00 0.00 0.00 0.01 0.02 0.04 0.07 0.03 0.01 0.00 0.00 0.00 0.00 0.00 0.00 0.01 0.02 0.02 0.01 0.02 0.02 0.03 0.04 0.04 0.05 0.04 0.04 0.04 0.04 0.04 0.04 0.05 0.05 0.05 0.04 0.05 0.05 0.06 0.06 0.06 0.06 0.08 0.11
0.00 0.00 0.00 0.00 0.01 0.01 0.06 0.05 0.02 0.01 0.00 0.00 0.01 0.02 0.02 0.03 0.05 0.08 0.11 0.12 0.13 0.12 0.10 0.07 0.05 0.03 0.02 0.01 0.01 0.01 0.01 0.01 0.02 0.03 0.03 0.04 0.05 0.05 0.06 0.06 0.07 0.09 0.12 0.16
0.00 0.01 0.00 0.00 0.00 0.04 0.04 0.01 0.01 0.01 0.01 0.01 0.03 0.05 0.09 0.12 0.17 0.23 0.27 0.21 0.11 0.06 0.03 0.01 0.00 0.00 0.00 0.00 0.00 0.01 0.01 0.01 0.02 0.02 0.03 0.04 0.06 0.07 0.08 0.11 0.13 0.17 0.20 0.22
0.01 0.01 0.01 0.00 0.01 0.02 0.01 0.02 0.03 0.03 0.02 0.05 0.10 0.15 0.18 0.18 0.13 0.09 0.06 0.03 0.01 0.01 0.00 0.00 0.00 0.00 0.00 0.01 0.01 0.01 0.01 0.02 0.02 0.04 0.07 0.09 0.11 0.13 0.16 0.20 0.24 0.28 0.31 0.30
0.02 0.02 0.02 0.01 0.01 0.03 0.03 0.04 0.07 0.07 0.12 0.13 0.12 0.09 0.05 0.02 0.01 0.00 0.00 0.00 0.00 0.00 0.00 0.00 0.00 0.00 0.01 0.01 0.02 0.02 0.02 0.03 0.04 0.05 0.08 0.11 0.17 0.23 0.26 0.30 0.34 0.38 0.40 0.39
0.01 0.01 0.01 0.01 0.01 0.02 0.04 0.03 0.03 0.06 0.07 0.03 0.01 0.01 0.00 0.00 0.00 0.00 0.00 0.00 0.00 0.00 0.00 0.00 0.00 0.00 0.01 0.02 0.03 0.04 0.06 0.06 0.06 0.07 0.09 0.12 0.18 0.28 0.31 0.36 0.41 0.46 0.47 0.48
0.00 0.00 0.01 0.01 0.03 0.02 0.02 0.01 0.00 0.00 0.00 0.00 0.00 0.00 0.00 0.00 0.00 0.00 0.00 0.00 0.00 0.00 0.00 0.00 0.00 0.00 0.01 0.03 0.06 0.08 0.10 0.09 0.10 0.12 0.14 0.15 0.22 0.30 0.32 0.42 0.46 0.52 0.56 0.58
0.00 0.00 0.00 0.01 0.01 0.00 0.00 0.00 0.00 0.00 0.00 0.00 0.00 0.00 0.00 0.00 0.00 0.00 0.00 0.00 0.00 0.00 0.00 0.00 0.00 0.01 0.02 0.04 0.08 0.12 0.13 0.13 0.15 0.17 0.17 0.21 0.25 0.37 0.52 0.56 0.53 0.57 0.62 0.62
0.00 0.00 0.00 0.00 0.00 0.00 0.00 0.00 0.00 0.00 0.00 0.00 0.00 0.00 0.00 0.00 0.00 0.00 0.00 0.00 0.00 0.00 0.00 0.00 0.01 0.02 0.04 0.05 0.08 0.12 0.15 0.19 0.22 0.22 0.21 0.23 0.30 0.43 0.67 0.80 0.74 0.68 0.68 0.67
0.00 0.00 0.00 0.00 0.00 0.00 0.00 0.00 0.00 0.00 0.00 0.00 0.00 0.00 0.00 0.00 0.00 0.00 0.00 0.00 0.00 0.00 0.01 0.01 0.03 0.05 0.06 0.07 0.09 0.13 0.18 0.25 0.28 0.26 0.24 0.25 0.32 0.46 0.68 0.85 0.85 0.71 0.69 0.66
0.00 0.00 0.00 0.00 0.00 0.00 0.00 0.00 0.00 0.00 0.00 0.00 0.00 0.00 0.00 0.00 0.00 0.00 0.00 0.00 0.01 0.01 0.03 0.04 0.06 0.08 0.10 0.12 0.15 0.17 0.22 0.29 0.35 0.34 0.29 0.30 0.35 0.46 0.66 0.89 0.96 0.76 0.58 0.56

GEFSCGP_prec_meanprecacc_060.txt.gz
Total_Precipitation_Accumulation
0.00 0.00 0.00 0.01 0.01 0.01 0.01 0.03 0.08 0.07 0.08 0.16 0.23 0.30 0.36 0.38 0.37 0.36 0.32 0.31 0.29 0.30 0.38 0.51 0.75 1.01 1.48 2.15 2.80 3.05 2.85 2.23 1.82 1.57 1.44 1.26 1.11 1.01 0.94 0.87 0.78 0.69 0.69 0.64
0.01 0.02 0.01 0.01 0.01 0.02 0.03 0.03 0.09 0.11 0.08 0.08 0.18 0.38 0.47 0.49 0.44 0.35 0.32 0.28 0.24 0.29 0.43 0.71 1.06 1.47 1.91 2.22 2.42 2.36 2.01 1.44 1.10 0.89 0.76 0.62 0.54 0.54 0.54 0.51 0.51 0.53 0.54 0.54
0.02 0.03 0.01 0.01 0.02 0.03 0.04 0.04 0.09 0.13 0.08 0.07 0.18 0.46 0.54 0.49 0.43 0.32 0.25 0.24 0.31 0.46 0.80 1.34 1.81 2.01 2.01 1.94 1.68 1.28 0.93 0.67 0.58 0.45 0.37 0.27 0.23 0.23 0.24 0.26 0.29 0.32 0.33 0.33
0.01 0.03 0.02 0.02 0.03 0.04 0.05 0.04 0.03 0.04 0.06 0.16 0.29 0.55 0.55 0.51 0.47 0.31 0.31 0.37 0.46 0.66 1.08 1.56 1.85 1.81 1.58 1.28 0.88 0.57 0.44 0.37 0.31 0.26 0.24 0.23 0.18 0.18 0.19 0.20 0.22 0.23 0.22 0.23
0.02 0.02 0.03 0.03 0.03 0.03 0.03 0.03 0.02 0.05 0.09 0.14 0.27 0.48 0.63 0.59 0.58 0.31 0.26 0.29 0.40 0.61 0.83 0.92 0.94 0.89 0.72 0.53 0.47 0.43 0.36 0.37 0.35 0.30 0.26 0.24 0.20 0.18 0.19 0.20 0.21 0.24 0.25 0.23
0.02 0.02 0.02 0.02 0.02 0.02 0.03 0.03 0.05 0.09 0.14 0.31 0.43 0.54 0.72 0.69 0.59 0.29 0.16 0.20 0.36 0.45 0.47 0.40 0.31 0.26 0.24 0.22 0.23 0.24 0.24 0.33 0.38 0.37 0.31 0.28 0.24 0.21 0.19 0.17 0.18 0.20 0.22 0.25
0.07 0.04 0.03 0.03 0.03 0.03 0.03 0.04 0.12 0.30 0.48 0.56 0.39 0.43 0.72 0.72 0.45 0.21 0.10 0.09 0.14 0.25 0.34 0.35 0.31 0.23 0.19 0.15 0.14 0.13 0.13 0.16 0.20 0.23 0.24 0.24 0.24 0.22 0.19 0.17 0.14 0.16 0.17 0.20
0.12 0.09 0.03 0.02 0.03 0.04 0.03 0.03 0.07 0.15 0.19 0.27 0.30 0.68 0.86 0.47 0.24 0.12 0.05 0.03 0.08 0.16 0.21 0.24 0.22 0.18 0.14 0.10 0.08 0.06 0.06 0.07 0.07 0.08 0.10 0.12 0.15 0.16 0.18 0.21 0.17 0.16 0.18 0.19
0.02 0.03 0.03 0.03 0.04 0.04 0.03 0.02 0.02 0.03 0.05 0.14 0.32 0.61 0.52 0.26 0.18 0.07 0.03 0.02 0.04 0.08 0.10 0.10 0.09 0.07 0.06 0.05 0.05 0.04 0.03 0.03 0.03 0.03 0.05 0.06 0.09 0.13 0.15 0.17 0.17 0.17 0.21 0.21
0.01 0.00 0.02 0.02 0.03 0.04 0.03 0.02 0.02 0.02 0.04 0.07 0.20 0.50 0.53 0.28 0.15 0.04 0.02 0.02 0.03 0.05 0.06 0.06 0.05 0.04 0.03 0.02 0.02 0.02 0.02 0.02 0.01 0.01 0.02 0.02 0.04 0.07 0.10 0.10 0.12 0.14 0.16 0.18
0.00 0.00 0.01 0.01 0.03 0.03 0.03 0.02 0.02 0.02 0.03 0.03 0.08 0.22 0.19 0.13 0.06 0.02 0.01 0.01 0.02 0.03 0.03 0.03 0.02 0.02 0.02 0.01 0.01 0.02 0.02 0.02 0.02 0.01 0.01 0.01 0.03 0.04 0.06 0.10 0.13 0.14 0.13 0.12
0.00 0.00 0.01 0.02 0.04 0.04 0.02 0.02 0.03 0.03 0.02 0.01 0.02 0.08 0.07 0.06 0.03 0.01 0.00 0.00 0.00 0.00 0.01 0.01 0.01 0.01 0.01 0.01 0.01 0.02 0.02 0.02 0.02 0.02 0.02 0.01 0.01 0.02 0.04 0.07 0.10 0.11 0.12 0.12
0.00 0.01 0.02 0.05 0.07 0.04 0.03 0.03 0.03 0.03 0.02 0.01 0.06 0.11 0.05 0.02 0.01 0.00 0.00 0.00 0.00 0.00 0.00 0.00 0.00 0.01 0.01 0.01 0.02 0.02 0.02 0.01 0.01 0.01 0.01 0.01 0.01 0.01 0.02 0.04 0.05 0.07 0.09 0.11
0.00 0.00 0.01 0.02 0.03 0.03 0.03 0.04 0.04 0.02 0.01 0.01 0.03 0.10 0.02 0.00 0.00 0.00 0.00 0.00 0.00 0.00 0.00 0.00 0.00 0.00 0.00 0.01 0.01 0.01 0.00 0.00 0.00 0.01 0.01 0.01 0.02 0.02 0.02 0.02 0.03 0.04 0.07 0.09
0.00 0.00 0.00 0.00 0.01 0.02 0.04 0.05 0.04 0.01 0.01 0.02 0.02 0.03 0.01 0.00 0.00 0.00 0.00 0.00 0.00 0.00 0.00 0.00 0.00 0.01 0.01 0.01 0.01 0.02 0.02 0.03 0.03 0.04 0.04 0.05 0.05 0.06 0.06 0.06 0.06 0.06 0.07 0.08
0.00 0.00 0.00 0.00 0.01 0.02 0.04 0.07 0.04 0.01 0.00 0.00 0.00 0.00 0.00 0.00 0.01 0.02 0.02 0.01 0.02 0.02 0.03 0.04 0.04 0.05 0.04 0.04 0.04 0.04 0.04 0.04 0.05 0.05 0.05 0.04 0.05 0.05 0.06 0.06 0.06 0.06 0.08 0.11
0.00 0.00 0.00 0.00 0.01 0.01 0.06 0.05 0.02 0.01 0.00 0.00 0.01 0.02 0.02 0.03 0.05 0.08 0.11 0.12 0.13 0.12 0.10 0.07 0.05 0.03 0.02 0.01 0.01 0.01 0.01 0.01 0.02 0.03 0.03 0.04 0.05 0.05 0.06 0.06 0.07 0.09 0.12 0.16
0.00 0.01 0.00 0.00 0.00 0.04 0.04 0.01 0.01 0.01 0.01 0.01 0.03 0.05 0.09 0.12 0.17 0.23 0.27 0.21 0.11 0.06 0.03 0.01 0.00 0.00 0.00 0.00 0.00 0.01 0.01 0.01 0.02 0.02 0.03 0.04 0.06 0.07 0.08 0.11 0.13 0.17 0.21 0.23
0.01 0.02 0.01 0.01 0.01 0.02 0.01 0.02 0.03 0.03 0.02 0.05 0.10 0.15 0.18 0.18 0.13 0.09 0.06 0.03 0.01 0.01 0.00 0.00 0.00 0.00 0.00 0.01 0.01 0.01 0.01 0.02 0.02 0.04 0.07 0.09 0.11 0.13 0.16 0.20 0.24 0.28 0.31 0.31
0.02 0.03 0.03 0.03 0.02 0.03 0.03 0.04 0.08 0.08 0.12 0.13 0.12 0.09 0.05 0.02 0.01 0.00 0.00 0.00 0.00 0.00 0.00 0.00 0.00 0.00 0.01 0.01 0.02 0.02 0.02 0.03 0.04 0.05 0.08 0.11 0.17 0.23 0.26 0.30 0.35 0.38 0.41 0.40
0.02 0.02 0.03 0.04 0.04 0.02 0.04 0.03 0.03 0.06 0.07 0.03 0.01 0.01 0.00 0.00 0.00 0.00 0.00 0.00 0.00 0.00 0.00 0.00 0.00 0.00 0.01 0.02 0.03 0.04 0.06 0.06 0.06 0.07 0.09 0.12 0.18 0.28 0.31 0.36 0.41 0.46 0.48 0.49
0.01 0.01 0.02 0.03 0.05 0.03 0.02 0.01 0.01 0.00 0.00 0.00 0.00 0.00 0.00 0.00 0.00 0.00 0.00 0.00 0.00 0.00 0.00 0.00 0.00 0.00 0.01 0.03 0.06 0.08 0.10 0.09 0.10 0.12 0.14 0.15 0.22 0.30 0.32 0.42 0.46 0.52 0.56 0.58
0.00 0.00 0.01 0.01 0.02 0.00 0.00 0.00 0.00 0.00 0.00 0.00 0.00 0.00 0.00 0.00 0.00 0.00 0.00 0.00 0.00 0.00 0.00 0.00 0.00 0.01 0.02 0.04 0.08 0.12 0.13 0.13 0.15 0.17 0.17 0.21 0.25 0.37 0.52 0.56 0.54 0.58 0.63 0.62
0.00 0.00 0.00 0.00 0.00 0.00 0.00 0.00 0.00 0.00 0.00 0.00 0.00 0.00 0.00 0.00 0.00 0.00 0.00 0.00 0.00 0.00 0.00 0.00 0.01 0.02 0.04 0.06 0.08 0.12 0.15 0.19 0.22 0.22 0.21 0.23 0.30 0.43 0.67 0.80 0.74 0.68 0.68 0.67
0.00 0.00 0.00 0.00 0.00 0.00 0.00 0.00 0.00 0.00 0.00 0.00 0.00 0.00 0.00 0.00 0.00 0.00 0.00 0.00 0.00 0.00 0.01 0.01 0.03 0.05 0.06 0.07 0.09 0.13 0.18 0.25 0.28 0.26 0.24 0.25 0.32 0.46 0.68 0.85 0.85 0.72 0.70 0.67
0.00 0.00 0.00 0.00 0.00 0.00 0.00 0.00 0.00 0.00 0.00 0.00 0.00 0.00 0.00 0.00 0.00 0.00 0.00 0.00 0.01 0.02 0.03 0.05 0.06 0.08 0.10 0.12 0.15 0.17 0.22 0.30 0.35 0.34 0.29 0.30 0.35 0.46 0.66 0.89 0.96 0.76 0.58 0.56

GEFSCGP_prec_meanprecacc_066.txt.gz
Total_Precipitation_Accumulation
0.00 0.00 0.00 0.01 0.01 0.01 0.02 0.04 0.11 0.12 0.09 0.17 0.29 0.51 0.61 0.49 0.43 0.44 0.45 0.49 0.38 0.38 0.43 0.55 0.77 1.03 1.50 2.17 2.81 3.06 2.85 2.23 1.82 1.57 1.44 1.26 1.11 1.01 0.94 0.87 0.78 0.69 0.69 0.64
0.01 0.02 0.01 0.01 0.01 0.02 0.03 0.06 0.13 0.12 0.08 0.08 0.23 0.50 0.56 0.55 0.53 0.45 0.45 0.42 0.31 0.36 0.49 0.76 1.09 1.49 1.93 2.23 2.43 2.37 2.01 1.45 1.11 0.90 0.77 0.64 0.55 0.54 0.54 0.51 0.51 0.53 0.54 0.54
0.02 0.03 0.01 0.01 0.02 0.03 0.06 0.06 0.11 0.14 0.09 0.09 0.25 0.58 0.68 0.61 0.52 0.39 0.29 0.28 0.36 0.53 0.86 1.39 1.85 2.04 2.02 1.95 1.68 1.28 0.94 0.69 0.59 0.46 0.39 0.30 0.25 0.24 0.25 0.27 0.30 0.33 0.33 0.33
0.01 0.03 0.02 0.02 0.03 0.05 0.07 0.05 0.03 0.04 0.07 0.24 0.36 0.69 0.73 0.68 0.59 0.38 0.37 0.42 0.51 0.72 1.12 1.59 1.89 1.84 1.60 1.28 0.89 0.59 0.47 0.38 0.33 0.28 0.27 0.25 0.20 0.19 0.20 0.21 0.23 0.23 0.22 0.23
0.02 0.02 0.03 0.03 0.04 0.03 0.04 0.03 0.03 0.05 0.11 0.21 0.33 0.53 0.70 0.69 0.71 0.37 0.31 0.34 0.43 0.65 0.85 0.94 0.96 0.90 0.73 0.53 0.48 0.45 0.40 0.40 0.38 0.32 0.29 0.25 0.21 0.19 0.20 0.21 0.21 0.24 0.25 0.23
0.02 0.02 0.02 0.02 0.02 0.02 0.03 0.04 0.09 0.15 0.25 0.47 0.48 0.57 0.75 0.74 0.64 0.32 0.17 0.21 0.37 0.48 0.49 0.41 0.31 0.26 0.24 0.22 0.23 0.25 0.28 0.36 0.40 0.38 0.32 0.29 0.24 0.21 0.19 0.18 0.18 0.20 0.23 0.25
0.07 0.05 0.04 0.04 0.04 0.04 0.03 0.07 0.26 0.51 0.71 0.69 0.40 0.43 0.73 0.72 0.45 0.21 0.10 0.09 0.14 0.27 0.35 0.36 0.31 0.23 0.19 0.15 0.14 0.13 0.14 0.17 0.20 0.23 0.24 0.24 0.24 0.22 0.19 0.17 0.15 0.16 0.17 0.20
0.13 0.11 0.05 0.03 0.04 0.05 0.04 0.04 0.12 0.23 0.26 0.30 0.30 0.68 0.86 0.47 0.24 0.12 0.05 0.03 0.08 0.16 0.21 0.24 0.22 0.18 0.14 0.10 0.08 0.06 0.07 0.08 0.08 0.09 0.10 0.12 0.15 0.16 0.18 0.21 0.17 0.17 0.18 0.19
0.03 0.05 0.04 0.04 0.05 0.04 0.03 0.02 0.02 0.04 0.06 0.17 0.34 0.62 0.52 0.26 0.18 0.07 0.03 0.02 0.04 0.08 0.10 0.10 0.09 0.07 0.06 0.05 0.05 0.04 0.03 0.03 0.03 0.04 0.05 0.06 0.09 0.13 0.15 0.17 0.17 0.17 0.22 0.21
0.01 0.01 0.02 0.03 0.03 0.04 0.03 0.02 0.02 0.02 0.05 0.11 0.25 0.54 0.54 0.28 0.15 0.04 0.02 0.02 0.03 0.05 0.06 0.06 0.05 0.04 0.03 0.02 0.02 0.02 0.02 0.02 0.01 0.01 0.02 0.02 0.04 0.07 0.10 0.11 0.13 0.15 0.16 0.19
0.00 0.00 0.01 0.02 0.03 0.04 0.03 0.02 0.02 0.02 0.03 0.04 0.15 0.31 0.21 0.13 0.06 0.02 0.01 0.01 0.02 0.03 0.03 0.03 0.02 0.02 0.02 0.01 0.01 0.02 0.02 0.02 0.02 0.01 0.01 0.01 0.03 0.04 0.06 0.10 0.13 0.15 0.13 0.13
0.00 0.00 0.01 0.03 0.05 0.04 0.02 0.02 0.03 0.03 0.02 0.01 0.03 0.10 0.07 0.06 0.03 0.01 0.00 0.00 0.00 0.00 0.01 0.01 0.01 0.01 0.01 0.01 0.01 0.02 0.02 0.02 0.02 0.02 0.02 0.01 0.01 0.02 0.04 0.07 0.10 0.11 0.12 0.12
0.00 0.01 0.02 0.09 0.13 0.08 0.04 0.03 0.03 0.03 0.02 0.01 0.06 0.12 0.06 0.02 0.01 0.00 0.00 0.00 0.00 0.00 0.00 0.00 0.00 0.01 0.01 0.01 0.02 0.02 0.02 0.01 0.01 0.01 0.01 0.01 0.01 0.01 0.02 0.04 0.05 0.07 0.09 0.11
0.00 0.00 0.01 0.07 0.13 0.11 0.06 0.04 0.04 0.02 0.01 0.01 0.04 0.12 0.04 0.01 0.00 0.00 0.00 0.00 0.00 0.00 0.00 0.00 0.00 0.00 0.00 0.01 0.01 0.01 0.00 0.00 0.00 0.01 0.01 0.01 0.02 0.02 0.02 0.02 0.03 0.04 0.07 0.10
0.00 0.00 0.00 0.00 0.03 0.05 0.06 0.06 0.04 0.01 0.01 0.02 0.02 0.03 0.01 0.00 0.00 0.00 0.00 0.00 0.00 0.00 0.00 0.00 0.00 0.01 0.01 0.01 0.01 0.02 0.02 0.03 0.03 0.04 0.04 0.05 0.05 0.06 0.06 0.06 0.06 0.06 0.07 0.08
0.00 0.00 0.00 0.00 0.01 0.02 0.04 0.07 0.04 0.01 0.00 0.00 0.00 0.00 0.00 0.00 0.01 0.02 0.02 0.01 0.02 0.02 0.03 0.04 0.04 0.05 0.04 0.04 0.04 0.04 0.04 0.04 0.05 0.05 0.05 0.04 0.05 0.05 0.06 0.06 0.06 0.06 0.08 0.12
0.00 0.00 0.00 0.00 0.01 0.01 0.06 0.05 0.02 0.01 0.00 0.00 0.01 0.02 0.02 0.03 0.05 0.08 0.11 0.12 0.13 0.12 0.10 0.07 0.05 0.03 0.02 0.01 0.01 0.01 0.01 0.01 0.02 0.03 0.03 0.04 0.05 0.05 0.06 0.06 0.07 0.09 0.12 0.16
0.01 0.01 0.00 0.00 0.00 0.04 0.05 0.03 0.02 0.01 0.01 0.01 0.03 0.06 0.09 0.12 0.17 0.23 0.27 0.21 0.11 0.06 0.03 0.01 0.00 0.00 0.00 0.00 0.00 0.01 0.01 0.01 0.02 0.02 0.03 0.04 0.06 0.07 0.08 0.11 0.13 0.17 0.21 0.23
0.02 0.02 0.02 0.01 0.01 0.03 0.02 0.04 0.05 0.04 0.03 0.05 0.11 0.15 0.18 0.18 0.13 0.09 0.06 0.03 0.01 0.01 0.00 0.00 0.00 0.00 0.00 0.01 0.01 0.01 0.01 0.02 0.02 0.04 0.07 0.09 0.11 0.13 0.16 0.20 0.24 0.29 0.31 0.31
0.04 0.04 0.05 0.03 0.03 0.04 0.05 0.08 0.10 0.10 0.14 0.14 0.13 0.10 0.05 0.02 0.01 0.01 0.00 0.00 0.00 0.00 0.00 0.00 0.00 0.00 0.01 0.01 0.02 0.02 0.02 0.03 0.04 0.05 0.08 0.11 0.17 0.23 0.26 0.30 0.35 0.38 0.41 0.40
0.08 0.07 0.06 0.05 0.05 0.03 0.07 0.06 0.05 0.09 0.12 0.06 0.05 0.04 0.05 0.05 0.04 0.02 0.00 0.00 0.00 0.00 0.00 0.00 0.00 0.00 0.01 0.02 0.03 0.04 0.06 0.06 0.06 0.07 0.09 0.12 0.18 0.28 0.31 0.36 0.41 0.46 0.48 0.49
0.04 0.04 0.05 0.07 0.10 0.07 0.09 0.06 0.06 0.08 0.07 0.04 0.03 0.03 0.03 0.02 0.01 0.00 0.00 0.00 0.00 0.00 0.00 0.00 0.00 0.00 0.01 0.03 0.06 0.08 0.10 0.09 0.10 0.12 0.14 0.15 0.22 0.30 0.32 0.42 0.47 0.52 0.57 0.60
0.01 0.02 0.02 0.04 0.07 0.06 0.07 0.08 0.07 0.08 0.06 0.03 0.02 0.01 0.01 0.01 0.00 0.00 0.00 0.00 0.00 0.00 0.00 0.00 0.00 0.01 0.02 0.04 0.08 0.12 0.13 0.13 0.15 0.17 0.17 0.21 0.25 0.37 0.52 0.57 0.54 0.58 0.64 0.63
0.01 0.02 0.03 0.03 0.05 0.05 0.07 0.09 0.06 0.03 0.01 0.01 0.01 0.00 0.00 0.00 0.00 0.00 0.00 0.00 0.00 0.00 0.00 0.00 0.01 0.02 0.04 0.06 0.08 0.12 0.15 0.19 0.22 0.22 0.21 0.24 0.30 0.43 0.67 0.81 0.74 0.68 0.68 0.68
0.02 0.03 0.04 0.04 0.04 0.05 0.04 0.03 0.01 0.01 0.00 0.00 0.00 0.00 0.00 0.00 0.00 0.00 0.00 0.00 0.00 0.00 0.01 0.02 0.03 0.05 0.06 0.07 0.09 0.13 0.18 0.25 0.28 0.27 0.24 0.25 0.32 0.46 0.68 0.86 0.85 0.72 0.70 0.67
0.01 0.02 0.03 0.04 0.03 0.02 0.03 0.03 0.01 0.01 0.00 0.00 0.00 0.00 0.00 0.00 0.00 0.00 0.00 0.00 0.01 0.02 0.03 0.05 0.07 0.08 0.10 0.12 0.15 0.17 0.22 0.30 0.36 0.34 0.30 0.31 0.35 0.46 0.67 0.89 0.97 0.76 0.59 0.56

GEFSCGP_prec_meanprecacc_072.txt.gz
Total_Precipitation_Accumulation
0.00 0.00 0.01 0.01 0.01 0.01 0.03 0.06 0.13 0.15 0.14 0.20 0.34 0.58 0.69 0.60 0.58 0.60 0.65 0.81 0.74 0.68 0.70 0.88 1.03 1.21 1.58 2.21 2.83 3.07 2.86 2.23 1.82 1.57 1.44 1.27 1.12 1.02 0.95 0.87 0.78 0.69 0.69 0.64
0.01 0.02 0.01 0.01 0.01 0.02 0.04 0.08 0.15 0.15 0.11 0.13 0.32 0.61 0.67 0.66 0.71 0.63 0.64 0.67 0.52 0.53 0.66 0.98 1.35 1.65 2.01 2.28 2.45 2.37 2.01 1.45 1.11 0.90 0.77 0.64 0.55 0.54 0.54 0.52 0.52 0.53 0.54 0.54
0.02 0.03 0.02 0.01 0.02 0.04 0.06 0.07 0.13 0.16 0.11 0.13 0.31 0.67 0.77 0.71 0.68 0.61 0.49 0.44 0.50 0.65 0.98 1.51 1.98 2.20 2.19 2.06 1.73 1.29 0.95 0.69 0.60 0.47 0.39 0.30 0.25 0.24 0.25 0.27 0.30 0.33 0.33 0.33
0.02 0.03 0.02 0.02 0.04 0.05 0.08 0.05 0.04 0.06 0.09 0.28 0.40 0.75 0.79 0.77 0.71 0.50 0.45 0.50 0.59 0.80 1.20 1.69 2.00 1.92 1.73 1.44 0.97 0.63 0.50 0.40 0.34 0.29 0.28 0.25 0.20 0.19 0.20 0.21 0.23 0.23 0.22 0.23
0.02 0.03 0.03 0.03 0.04 0.04 0.04 0.04 0.04 0.07 0.14 0.26 0.36 0.57 0.74 0.73 0.75 0.40 0.33 0.42 0.52 0.70 0.90 0.99 1.02 0.95 0.77 0.58 0.54 0.50 0.44 0.42 0.39 0.32 0.29 0.25 0.21 0.19 0.20 0.21 0.22 0.24 0.25 0.23
0.03 0.03 0.02 0.02 0.03 0.03 0.03 0.05 0.11 0.18 0.30 0.53 0.51 0.61 0.79 0.76 0.65 0.32 0.18 0.24 0.41 0.51 0.51 0.44 0.34 0.28 0.25 0.23 0.24 0.26 0.28 0.36 0.40 0.38 0.32 0.29 0.24 0.21 0.19 0.18 0.18 0.20 0.23 0.25
0.09 0.07 0.05 0.05 0.04 0.05 0.04 0.08 0.28 0.56 0.79 0.78 0.44 0.48 0.75 0.73 0.46 0.21 0.10 0.09 0.15 0.28 0.36 0.37 0.32 0.24 0.19 0.16 0.14 0.14 0.14 0.18 0.21 0.23 0.24 0.24 0.24 0.22 0.19 0.17 0.15 0.16 0.17 0.20
0.14 0.13 0.07 0.05 0.05 0.06 0.05 0.05 0.15 0.27 0.33 0.40 0.42 0.80 0.88 0.48 0.24 0.12 0.05 0.04 0.08 0.16 0.21 0.25 0.22 0.18 0.14 0.10 0.08 0.07 0.07 0.08 0.08 0.09 0.10 0.12 0.15 0.16 0.18 0.21 0.17 0.17 0.18 0.19
0.05 0.06 0.05 0.05 0.05 0.05 0.04 0.03 0.04 0.06 0.12 0.29 0.51 0.73 0.54 0.27 0.18 0.07 0.03 0.02 0.04 0.08 0.10 0.10 0.09 0.07 0.06 0.05 0.05 0.04 0.04 0.03 0.03 0.04 0.05 0.06 0.09 0.13 0.15 0.17 0.17 0.17 0.22 0.21
0.02 0.02 0.03 0.04 0.05 0.05 0.04 0.03 0.04 0.05 0.10 0.22 0.40 0.67 0.59 0.29 0.16 0.05 0.02 0.02 0.04 0.05 0.06 0.06 0.05 0.04 0.03 0.02 0.02 0.02 0.02 0.02 0.01 0.01 0.02 0.02 0.04 0.07 0.10 0.11 0.13 0.15 0.16 0.19
0.01 0.01 0.02 0.03 0.05 0.06 0.05 0.04 0.04 0.05 0.06 0.09 0.24 0.39 0.24 0.15 0.07 0.02 0.01 0.01 0.02 0.03 0.03 0.03 0.03 0.02 0.02 0.01 0.01 0.02 0.02 0.02 0.02 0.01 0.01 0.01 0.03 0.04 0.06 0.10 0.13 0.15 0.13 0.13
0.01 0.01 0.02 0.04 0.07 0.07 0.06 0.05 0.06 0.06 0.05 0.05 0.09 0.15 0.10 0.08 0.05 0.02 0.01 0.00 0.00 0.00 0.01 0.01 0.01 0.01 0.01 0.01 0.01 0.02 0.02 0.02 0.02 0.02 0.02 0.01 0.01 0.02 0.04 0.07 0.10 0.11 0.12 0.12
0.01 0.01 0.03 0.10 0.14 0.09 0.05 0.05 0.05 0.04 0.03 0.03 0.10 0.16 0.09 0.04 0.03 0.01 0.00 0.00 0.00 0.00 0.00 0.00 0.00 0.01 0.01 0.01 0.02 0.02 0.02 0.01 0.01 0.01 0.01 0.01 0.01 0.01 0.02 0.04 0.05 0.07 0.09 0.11
0.01 0.01 0.01 0.07 0.14 0.12 0.08 0.06 0.06 0.04 0.02 0.02 0.06 0.15 0.07 0.03 0.02 0.01 0.00 0.00 0.00 0.00 0.00 0.00 0.00 0.00 0.00 0.01 0.01 0.01 0.00 0.00 0.00 0.01 0.01 0.01 0.02 0.02 0.02 0.02 0.03 0.04 0.07 0.10
0.01 0.00 0.00 0.01 0.03 0.06 0.08 0.08 0.06 0.03 0.02 0.03 0.04 0.06 0.04 0.02 0.01 0.01 0.00 0.00 0.00 0.00 0.00 0.00 0.00 0.01 0.01 0.01 0.01 0.02 0.02 0.03 0.03 0.04 0.04 0.05 0.05 0.06 0.06 0.06 0.06 0.06 0.07 0.08
0.01 0.01 0.01 0.01 0.03 0.04 0.06 0.10 0.06 0.03 0.02 0.02 0.02 0.03 0.02 0.02 0.02 0.02 0.02 0.02 0.02 0.02 0.03 0.04 0.05 0.05 0.04 0.04 0.04 0.04 0.04 0.04 0.05 0.05 0.05 0.04 0.05 0.05 0.06 0.06 0.06 0.06 0.08 0.12
0.02 0.01 0.01 0.01 0.02 0.03 0.08 0.07 0.05 0.06 0.05 0.05 0.05 0.06 0.06 0.07 0.07 0.10 0.12 0.13 0.13 0.13 0.10 0.07 0.05 0.03 0.02 0.01 0.01 0.01 0.01 0.01 0.02 0.03 0.03 0.04 0.05 0.05 0.06 0.06 0.07 0.09 0.12 0.16
0.02 0.02 0.01 0.02 0.02 0.06 0.08 0.07 0.05 0.06 0.07 0.08 0.10 0.13 0.15 0.18 0.21 0.27 0.29 0.23 0.13 0.07 0.03 0.01 0.01 0.00 0.00 0.00 0.00 0.01 0.01 0.01 0.02 0.02 0.03 0.04 0.06 0.07 0.08 0.11 0.13 0.17 0.21 0.23
0.04 0.05 0.04 0.03 0.03 0.05 0.05 0.09 0.10 0.09 0.10 0.13 0.19 0.23 0.27 0.25 0.19 0.14 0.10 0.05 0.03 0.02 0.02 0.01 0.01 0.00 0.00 0.01 0.01 0.01 0.01 0.02 0.02 0.04 0.07 0.09 0.11 0.13 0.16 0.20 0.24 0.29 0.31 0.31
0.07 0.07 0.08 0.07 0.06 0.07 0.09 0.13 0.14 0.14 0.21 0.23 0.23 0.20 0.15 0.12 0.12 0.09 0.06 0.04 0.03 0.02 0.01 0.01 0.00 0.00 0.01 0.02 0.02 0.02 0.02 0.03 0.04 0.06 0.08 0.11 0.17 0.23 0.26 0.30 0.35 0.38 0.41 0.40
0.13 0.16 0.14 0.11 0.11 0.10 0.14 0.12 0.10 0.16 0.22 0.22 0.23 0.20 0.18 0.16 0.16 0.14 0.08 0.04 0.03 0.02 0.02 0.01 0.01 0.01 0.02 0.03 0.03 0.05 0.06 0.07 0.07 0.08 0.10 0.12 0.18 0.28 0.32 0.37 0.42 0.46 0.48 0.49
0.10 0.12 0.16 0.19 0.23 0.19 0.20 0.17 0.18 0.22 0.20 0.20 0.18 0.16 0.14 0.11 0.07 0.06 0.05 0.04 0.03 0.02 0.02 0.02 0.01 0.01 0.02 0.04 0.07 0.09 0.11 0.10 0.11 0.13 0.15 0.16 0.22 0.30 0.33 0.42 0.47 0.52 0.57 0.60
0.09 0.12 0.15 0.21 0.23 0.18 0.19 0.19 0.18 0.18 0.17 0.15 0.13 0.09 0.09 0.10 0.10 0.06 0.06 0.06 0.05 0.04 0.03 0.02 0.02 0.03 0.03 0.06 0.10 0.14 0.14 0.14 0.17 0.18 0.18 0.22 0.26 0.38 0.52 0.57 0.54 0.58 0.64 0.64
0.08 0.08 0.11 0.17 0.21 0.22 0.21 0.19 0.14 0.13 0.10 0.06 0.06 0.07 0.06 0.07 0.07 0.08 0.08 0.07 0.05 0.03 0.03 0.03 0.03 0.04 0.06 0.07 0.10 0.15 0.17 0.21 0.25 0.25 0.23 0.25 0.31 0.44 0.68 0.82 0.75 0.69 0.69 0.69
0.04 0.07 0.10 0.14 0.18 0.17 0.18 0.12 0.08 0.06 0.03 0.02 0.02 0.02 0.02 0.02 0.02 0.03 0.04 0.02 0.02 0.02 0.03 0.04 0.06 0.08 0.08 0.09 0.12 0.17 0.23 0.30 0.33 0.31 0.28 0.28 0.34 0.49 0.70 0.87 0.87 0.73 0.71 0.69
0.03 0.04 0.06 0.09 0.12 0.13 0.14 0.09 0.05 0.04 0.03 0.02 0.01 0.01 0.01 0.01 0.01 0.01 0.01 0.02 0.02 0.03 0.05 0.07 0.09 0.11 0.13 0.16 0.20 0.23 0.29 0.36 0.41 0.39 0.36 0.36 0.40 0.50 0.71 0.93 1.00 0.79 0.63 0.60

GEFSCGP_prec_meanprecacc_078.txt.gz
Total_Precipitation_Accumulation
0.00 0.00 0.01 0.01 0.01 0.01 0.03 0.06 0.14 0.15 0.14 0.20 0.34 0.58 0.69 0.61 0.61 0.63 0.70 0.88 0.86 0.85 0.96 1.20 1.38 1.57 1.95 2.49 3.01 3.18 2.92 2.29 1.87 1.60 1.45 1.27 1.12 1.02 0.95 0.87 0.78 0.69 0.69 0.64
0.01 0.02 0.01 0.01 0.01 0.02 0.04 0.08 0.15 0.15 0.11 0.13 0.32 0.61 0.67 0.68 0.72 0.65 0.67 0.72 0.59 0.65 0.86 1.27 1.70 2.02 2.35 2.54 2.62 2.49 2.09 1.49 1.14 0.92 0.78 0.64 0.55 0.54 0.54 0.52 0.52 0.53 0.54 0.54
0.02 0.03 0.02 0.01 0.02 0.04 0.07 0.07 0.13 0.16 0.11 0.13 0.31 0.67 0.78 0.73 0.70 0.63 0.51 0.49 0.56 0.70 1.12 1.72 2.23 2.51 2.47 2.26 1.86 1.41 1.04 0.73 0.62 0.48 0.40 0.30 0.25 0.24 0.25 0.27 0.30 0.33 0.33 0.33
0.02 0.03 0.02 0.02 0.04 0.05 0.08 0.06 0.05 0.06 0.10 0.28 0.40 0.75 0.79 0.78 0.72 0.51 0.47 0.53 0.63 0.84 1.28 1.86 2.21 2.13 1.95 1.61 1.10 0.73 0.56 0.43 0.35 0.29 0.28 0.25 0.20 0.19 0.20 0.21 0.23 0.23 0.22 0.23
0.02 0.03 0.03 0.03 0.04 0.04 0.05 0.04 0.04 0.07 0.14 0.26 0.36 0.57 0.74 0.73 0.75 0.40 0.34 0.43 0.54 0.74 0.94 1.07 1.14 1.05 0.86 0.66 0.62 0.57 0.48 0.43 0.39 0.32 0.29 0.25 0.21 0.19 0.20 0.21 0.22 0.24 0.25 0.23
0.03 0.03 0.03 0.03 0.03 0.03 0.04 0.05 0.11 0.19 0.30 0.53 0.51 0.61 0.79 0.76 0.65 0.32 0.19 0.25 0.42 0.54 0.54 0.47 0.39 0.31 0.28 0.25 0.28 0.29 0.30 0.37 0.41 0.38 0.32 0.29 0.24 0.21 0.19 0.18 0.18 0.20 0.23 0.25
0.09 0.07 0.05 0.05 0.05 0.05 0.04 0.08 0.29 0.56 0.79 0.78 0.44 0.48 0.75 0.73 0.46 0.21 0.10 0.09 0.16 0.30 0.37 0.38 0.33 0.25 0.20 0.17 0.15 0.15 0.15 0.18 0.21 0.23 0.24 0.24 0.24 0.22 0.19 0.17 0.15 0.16 0.17 0.20
0.14 0.13 0.08 0.05 0.05 0.06 0.05 0.06 0.15 0.28 0.33 0.40 0.42 0.80 0.89 0.48 0.24 0.12 0.05 0.04 0.08 0.16 0.21 0.25 0.23 0.18 0.14 0.11 0.08 0.07 0.07 0.08 0.08 0.09 0.11 0.12 0.15 0.16 0.18 0.21 0.17 0.17 0.18 0.19
0.06 0.07 0.06 0.05 0.06 0.05 0.04 0.03 0.05 0.07 0.12 0.29 0.51 0.74 0.54 0.27 0.18 0.07 0.03 0.02 0.04 0.08 0.10 0.10 0.09 0.08 0.06 0.06 0.05 0.05 0.04 0.03 0.03 0.04 0.05 0.06 0.09 0.13 0.15 0.17 0.17 0.17 0.22 0.21
0.04 0.03 0.04 0.04 0.05 0.05 0.04 0.04 0.04 0.06 0.11 0.23 0.40 0.67 0.59 0.29 0.16 0.05 0.02 0.02 0.04 0.05 0.06 0.06 0.05 0.05 0.03 0.03 0.03 0.03 0.02 0.02 0.02 0.02 0.02 0.02 0.04 0.07 0.10 0.11 0.13 0.15 0.16 0.19
0.03 0.02 0.03 0.04 0.05 0.06 0.06 0.05 0.05 0.05 0.06 0.10 0.24 0.39 0.24 0.15 0.07 0.02 0.01 0.01 0.02 0.03 0.03 0.03 0.03 0.02 0.02 0.02 0.02 0.02 0.02 0.02 0.02 0.02 0.01 0.01 0.03 0.04 0.06 0.10 0.13 0.15 0.13 0.13
0.01 0.02 0.03 0.05 0.07 0.08 0.06 0.06 0.06 0.06 0.05 0.05 0.09 0.15 0.10 0.08 0.05 0.02 0.01 0.00 0.00 0.01 0.01 0.01 0.01 0.01 0.01 0.01 0.01 0.02 0.02 0.02 0.02 0.02 0.02 0.01 0.02 0.02 0.04 0.07 0.10 0.11 0.12 0.12
0.01 0.02 0.04 0.10 0.14 0.10 0.06 0.05 0.05 0.05 0.03 0.03 0.10 0.16 0.09 0.04 0.03 0.02 0.01 0.00 0.00 0.00 0.00 0.00 0.00 0.01 0.01 0.01 0.02 0.02 0.02 0.01 0.01 0.01 0.01 0.01 0.01 0.01 0.02 0.04 0.05 0.07 0.09 0.11
0.01 0.01 0.02 0.08 0.14 0.12 0.08 0.06 0.06 0.04 0.02 0.03 0.07 0.15 0.07 0.04 0.02 0.01 0.01 0.01 0.00 0.00 0.00 0.00 0.00 0.00 0.01 0.01 0.01 0.01 0.01 0.01 0.01 0.01 0.01 0.01 0.02 0.02 0.02 0.02 0.03 0.04 0.07 0.10
0.01 0.01 0.01 0.01 0.03 0.06 0.08 0.09 0.06 0.04 0.02 0.04 0.04 0.06 0.04 0.02 0.01 0.01 0.01 0.01 0.00 0.00 0.00 0.00 0.01 0.01 0.01 0.01 0.01 0.02 0.03 0.03 0.04 0.04 0.04 0.05 0.05 0.06 0.06 0.06 0.06 0.06 0.07 0.08
0.03 0.02 0.01 0.01 0.03 0.04 0.06 0.10 0.06 0.03 0.03 0.02 0.02 0.03 0.03 0.02 0.02 0.03 0.03 0.02 0.02 0.03 0.03 0.04 0.05 0.05 0.05 0.04 0.04 0.04 0.04 0.05 0.05 0.05 0.05 0.04 0.05 0.05 0.06 0.06 0.06 0.06 0.08 0.12
0.02 0.02 0.01 0.01 0.03 0.03 0.08 0.08 0.06 0.07 0.06 0.05 0.06 0.06 0.07 0.08 0.09 0.11 0.13 0.15 0.15 0.13 0.10 0.08 0.06 0.04 0.03 0.02 0.01 0.02 0.02 0.02 0.02 0.03 0.03 0.04 0.05 0.05 0.06 0.06 0.07 0.09 0.12 0.16
0.02 0.02 0.02 0.02 0.03 0.06 0.08 0.07 0.06 0.07 0.09 0.09 0.11 0.13 0.16 0.20 0.24 0.30 0.32 0.24 0.15 0.08 0.05 0.03 0.03 0.02 0.02 0.01 0.01 0.02 0.02 0.02 0.02 0.03 0.03 0.05 0.06 0.07 0.08 0.11 0.13 0.17 0.21 0.23
0.05 0.05 0.04 0.03 0.03 0.05 0.06 0.09 0.11 0.10 0.11 0.14 0.21 0.25 0.29 0.29 0.23 0.18 0.13 0.08 0.06 0.05 0.04 0.04 0.03 0.03 0.02 0.02 0.02 0.02 0.02 0.03 0.04 0.05 0.08 0.10 0.12 0.14 0.16 0.20 0.24 0.29 0.32 0.31
0.07 0.08 0.09 0.07 0.07 0.08 0.10 0.14 0.16 0.16 0.23 0.24 0.25 0.22 0.17 0.14 0.17 0.13 0.09 0.07 0.06 0.06 0.04 0.04 0.03 0.03 0.03 0.03 0.04 0.04 0.05 0.05 0.06 0.08 0.10 0.13 0.18 0.24 0.27 0.32 0.36 0.39 0.42 0.41
0.13 0.17 0.15 0.12 0.11 0.11 0.15 0.13 0.12 0.19 0.25 0.25 0.24 0.22 0.20 0.20 0.21 0.20 0.13 0.08 0.07 0.07 0.06 0.05 0.04 0.03 0.04 0.05 0.07 0.09 0.10 0.10 0.10 0.11 0.13 0.15 0.21 0.30 0.34 0.38 0.43 0.47 0.49 0.50
0.10 0.13 0.17 0.20 0.24 0.20 0.20 0.18 0.20 0.24 0.23 0.22 0.20 0.17 0.16 0.14 0.11 0.10 0.10 0.09 0.08 0.06 0.06 0.05 0.05 0.05 0.06 0.07 0.10 0.13 0.15 0.15 0.16 0.17 0.18 0.19 0.25 0.33 0.35 0.45 0.49 0.54 0.58 0.60
0.10 0.13 0.16 0.21 0.23 0.19 0.20 0.21 0.21 0.21 0.20 0.17 0.15 0.12 0.12 0.13 0.12 0.09 0.08 0.09 0.08 0.07 0.06 0.05 0.05 0.06 0.07 0.10 0.13 0.18 0.18 0.19 0.20 0.21 0.22 0.25 0.30 0.42 0.56 0.60 0.57 0.61 0.66 0.65
0.08 0.08 0.12 0.18 0.21 0.23 0.22 0.21 0.17 0.15 0.12 0.08 0.09 0.11 0.09 0.08 0.09 0.09 0.10 0.09 0.07 0.06 0.05 0.05 0.06 0.07 0.08 0.09 0.12 0.17 0.20 0.24 0.28 0.27 0.27 0.29 0.35 0.48 0.72 0.85 0.78 0.72 0.71 0.71
0.04 0.07 0.11 0.16 0.19 0.19 0.19 0.13 0.09 0.08 0.07 0.06 0.06 0.05 0.04 0.03 0.03 0.04 0.04 0.03 0.02 0.03 0.04 0.05 0.07 0.09 0.09 0.10 0.14 0.19 0.25 0.33 0.36 0.34 0.32 0.32 0.38 0.52 0.74 0.91 0.90 0.76 0.73 0.72
0.03 0.05 0.07 0.11 0.14 0.15 0.16 0.11 0.08 0.09 0.08 0.07 0.05 0.03 0.02 0.01 0.01 0.01 0.01 0.02 0.02 0.03 0.05 0.07 0.10 0.12 0.13 0.16 0.21 0.25 0.30 0.38 0.44 0.42 0.38 0.39 0.43 0.52 0.73 0.95 1.01 0.81 0.64 0.62

GEFSCGP_prec_meanprecacc_084.txt.gz
Total_Precipitation_Accumulation
0.00 0.00 0.01 0.01 0.01 0.01 0.03 0.06 0.14 0.16 0.14 0.20 0.34 0.58 0.70 0.62 0.63 0.65 0.72 0.91 0.90 0.90 1.01 1.26 1.48 1.70 2.11 2.71 3.22 3.33 3.04 2.38 1.94 1.66 1.51 1.30 1.14 1.02 0.95 0.87 0.78 0.69 0.69 0.64
0.01 0.02 0.01 0.01 0.01 0.02 0.04 0.08 0.15 0.15 0.11 0.13 0.32 0.61 0.67 0.69 0.73 0.66 0.68 0.76 0.65 0.70 0.90 1.31 1.77 2.14 2.48 2.71 2.81 2.62 2.19 1.56 1.20 0.98 0.84 0.68 0.57 0.54 0.54 0.52 0.52 0.53 0.54 0.54
0.02 0.03 0.02 0.01 0.02 0.04 0.07 0.07 0.13 0.16 0.12 0.13 0.31 0.68 0.78 0.73 0.70 0.64 0.52 0.53 0.61 0.74 1.15 1.75 2.30 2.62 2.59 2.40 1.99 1.51 1.11 0.78 0.66 0.52 0.44 0.32 0.26 0.24 0.25 0.27 0.30 0.33 0.33 0.33
0.02 0.03 0.02 0.02 0.04 0.05 0.08 0.06 0.05 0.06 0.10 0.29 0.40 0.76 0.79 0.78 0.73 0.51 0.48 0.55 0.65 0.85 1.31 1.90 2.27 2.22 2.05 1.71 1.20 0.84 0.62 0.46 0.37 0.31 0.30 0.26 0.21 0.20 0.21 0.22 0.23 0.24 0.22 0.23
0.02 0.03 0.03 0.03 0.04 0.04 0.05 0.04 0.04 0.07 0.14 0.27 0.37 0.57 0.74 0.73 0.75 0.40 0.34 0.45 0.55 0.75 0.95 1.11 1.19 1.11 0.95 0.75 0.70 0.64 0.52 0.45 0.41 0.35 0.31 0.27 0.22 0.20 0.20 0.21 0.22 0.25 0.25 0.23
0.03 0.03 0.03 0.03 0.03 0.03 0.04 0.05 0.11 0.19 0.30 0.53 0.51 0.61 0.79 0.76 0.65 0.32 0.19 0.25 0.43 0.54 0.54 0.50 0.43 0.36 0.35 0.32 0.33 0.33 0.33 0.39 0.42 0.39 0.33 0.30 0.26 0.22 0.20 0.18 0.19 0.20 0.23 0.25
0.09 0.07 0.05 0.05 0.05 0.05 0.04 0.08 0.29 0.57 0.79 0.78 0.44 0.48 0.75 0.73 0.46 0.21 0.10 0.09 0.17 0.30 0.37 0.39 0.36 0.29 0.26 0.22 0.20 0.18 0.18 0.20 0.22 0.24 0.25 0.25 0.25 0.22 0.20 0.18 0.15 0.17 0.17 0.20
0.14 0.13 0.08 0.05 0.05 0.06 0.05 0.06 0.16 0.28 0.33 0.40 0.42 0.80 0.89 0.48 0.24 0.12 0.05 0.04 0.09 0.16 0.22 0.25 0.23 0.21 0.17 0.14 0.12 0.10 0.10 0.10 0.09 0.10 0.12 0.13 0.16 0.17 0.18 0.21 0.17 0.17 0.18 0.20
0.06 0.07 0.06 0.05 0.06 0.05 0.04 0.03 0.05 0.07 0.12 0.29 0.51 0.74 0.54 0.27 0.18 0.07 0.03 0.02 0.04 0.08 0.10 0.10 0.10 0.09 0.08 0.07 0.08 0.07 0.06 0.05 0.04 0.04 0.06 0.07 0.10 0.13 0.15 0.17 0.17 0.17 0.22 0.21
0.04 0.03 0.04 0.04 0.06 0.06 0.05 0.04 0.04 0.06 0.12 0.24 0.40 0.67 0.59 0.29 0.16 0.05 0.02 0.02 0.04 0.05 0.06 0.06 0.05 0.05 0.04 0.04 0.04 0.04 0.04 0.03 0.02 0.02 0.02 0.02 0.04 0.08 0.10 0.11 0.13 0.15 0.16 0.19
0.03 0.02 0.04 0.05 0.06 0.07 0.06 0.05 0.05 0.05 0.06 0.10 0.24 0.39 0.25 0.15 0.07 0.02 0.01 0.01 0.02 0.03 0.03 0.03 0.03 0.02 0.02 0.02 0.02 0.03 0.03 0.03 0.02 0.02 0.01 0.01 0.03 0.05 0.07 0.10 0.13 0.15 0.13 0.13
0.02 0.02 0.03 0.06 0.08 0.08 0.07 0.06 0.06 0.07 0.06 0.05 0.10 0.15 0.10 0.08 0.05 0.02 0.01 0.00 0.01 0.01 0.01 0.01 0.01 0.01 0.01 0.01 0.01 0.02 0.02 0.02 0.02 0.02 0.02 0.01 0.02 0.02 0.04 0.07 0.10 0.11 0.12 0.12
0.02 0.02 0.04 0.11 0.15 0.10 0.06 0.05 0.05 0.05 0.04 0.04 0.11 0.16 0.09 0.04 0.03 0.02 0.01 0.00 0.00 0.00 0.00 0.00 0.00 0.01 0.01 0.01 0.02 0.02 0.02 0.01 0.01 0.01 0.01 0.01 0.01 0.01 0.02 0.04 0.05 0.07 0.09 0.12
0.02 0.01 0.02 0.09 0.14 0.13 0.08 0.06 0.06 0.04 0.03 0.03 0.07 0.15 0.07 0.04 0.02 0.01 0.01 0.01 0.00 0.00 0.00 0.00 0.00 0.00 0.01 0.01 0.01 0.01 0.01 0.01 0.01 0.01 0.01 0.01 0.02 0.02 0.02 0.03 0.03 0.05 0.07 0.10
0.02 0.01 0.01 0.01 0.04 0.06 0.08 0.09 0.06 0.04 0.02 0.04 0.04 0.06 0.04 0.02 0.01 0.01 0.01 0.01 0.01 0.00 0.00 0.01 0.01 0.01 0.01 0.01 0.02 0.02 0.03 0.03 0.04 0.04 0.05 0.05 0.05 0.06 0.06 0.06 0.06 0.06 0.07 0.08
0.03 0.03 0.01 0.01 0.03 0.04 0.06 0.10 0.06 0.03 0.03 0.02 0.02 0.03 0.03 0.02 0.02 0.03 0.03 0.03 0.03 0.03 0.04 0.04 0.05 0.05 0.05 0.05 0.05 0.04 0.05 0.05 0.05 0.06 0.05 0.04 0.05 0.05 0.06 0.06 0.06 0.06 0.08 0.12
0.03 0.02 0.02 0.01 0.03 0.03 0.08 0.08 0.06 0.07 0.06 0.05 0.06 0.06 0.07 0.08 0.09 0.12 0.14 0.15 0.15 0.14 0.11 0.09 0.07 0.05 0.03 0.02 0.02 0.02 0.03 0.03 0.03 0.04 0.04 0.05 0.05 0.06 0.06 0.06 0.07 0.09 0.12 0.16
0.03 0.03 0.02 0.02 0.03 0.07 0.08 0.07 0.06 0.07 0.09 0.09 0.11 0.14 0.17 0.21 0.25 0.31 0.33 0.26 0.17 0.10 0.07 0.05 0.04 0.03 0.02 0.02 0.02 0.03 0.03 0.04 0.04 0.05 0.06 0.07 0.08 0.08 0.09 0.11 0.13 0.17 0.21 0.23
0.05 0.05 0.04 0.03 0.04 0.05 0.06 0.09 0.11 0.11 0.12 0.14 0.21 0.25 0.29 0.29 0.23 0.19 0.14 0.10 0.08 0.07 0.06 0.06 0.06 0.05 0.04 0.04 0.04 0.04 0.04 0.05 0.06 0.08 0.10 0.13 0.14 0.15 0.17 0.21 0.25 0.30 0.32 0.32
0.08 0.08 0.10 0.09 0.09 0.09 0.10 0.14 0.16 0.17 0.25 0.24 0.25 0.22 0.18 0.16 0.19 0.16 0.11 0.09 0.08 0.07 0.07 0.06 0.06 0.05 0.05 0.06 0.06 0.05 0.06 0.07 0.09 0.11 0.13 0.16 0.21 0.26 0.29 0.33 0.37 0.40 0.42 0.41
0.14 0.18 0.16 0.14 0.13 0.11 0.15 0.13 0.12 0.22 0.28 0.25 0.25 0.22 0.21 0.21 0.23 0.22 0.15 0.10 0.09 0.09 0.08 0.07 0.06 0.05 0.06 0.08 0.09 0.11 0.13 0.14 0.15 0.16 0.16 0.18 0.23 0.32 0.35 0.40 0.44 0.49 0.50 0.51
0.11 0.15 0.19 0.21 0.26 0.21 0.21 0.18 0.21 0.26 0.23 0.22 0.21 0.18 0.17 0.15 0.12 0.11 0.11 0.10 0.09 0.09 0.09 0.08 0.08 0.08 0.08 0.10 0.13 0.16 0.18 0.18 0.19 0.20 0.22 0.22 0.27 0.35 0.37 0.46 0.50 0.56 0.60 0.62
0.11 0.13 0.16 0.22 0.24 0.19 0.20 0.21 0.21 0.21 0.20 0.17 0.16 0.13 0.13 0.14 0.13 0.09 0.09 0.10 0.09 0.08 0.07 0.07 0.08 0.09 0.10 0.13 0.17 0.22 0.22 0.23 0.24 0.24 0.25 0.28 0.33 0.44 0.58 0.62 0.59 0.63 0.68 0.67
0.09 0.08 0.12 0.18 0.22 0.23 0.23 0.22 0.17 0.15 0.13 0.09 0.10 0.13 0.11 0.10 0.10 0.10 0.10 0.09 0.07 0.06 0.05 0.06 0.07 0.08 0.10 0.11 0.14 0.19 0.23 0.27 0.31 0.31 0.29 0.32 0.38 0.51 0.74 0.87 0.81 0.74 0.74 0.73
0.05 0.08 0.12 0.17 0.20 0.19 0.19 0.14 0.10 0.09 0.08 0.08 0.08 0.08 0.07 0.04 0.04 0.05 0.05 0.03 0.03 0.03 0.04 0.05 0.07 0.10 0.11 0.11 0.15 0.20 0.26 0.34 0.37 0.35 0.32 0.33 0.39 0.53 0.75 0.92 0.91 0.77 0.74 0.72
0.03 0.05 0.08 0.13 0.15 0.15 0.17 0.12 0.10 0.11 0.11 0.11 0.09 0.07 0.05 0.03 0.02 0.02 0.02 0.02 0.02 0.03 0.05 0.08 0.10 0.12 0.14 0.17 0.22 0.26 0.32 0.40 0.45 0.42 0.39 0.39 0.43 0.52 0.73 0.95 1.02 0.82 0.64 0.62

GEFSCGP_prec_meanprecacc_090.txt.gz
Total_Precipitation_Accumulation
0.00 0.00 0.01 0.01 0.01 0.01 0.03 0.06 0.14 0.16 0.14 0.21 0.34 0.58 0.70 0.62 0.63 0.66 0.74 0.94 0.94 0.96 1.09 1.35 1.57 1.79 2.25 2.85 3.37 3.52 3.26 2.56 2.08 1.77 1.62 1.41 1.22 1.05 0.95 0.87 0.78 0.69 0.69 0.64
0.01 0.02 0.01 0.01 0.01 0.02 0.04 0.08 0.16 0.15 0.11 0.13 0.32 0.61 0.68 0.69 0.73 0.66 0.69 0.77 0.68 0.74 0.97 1.39 1.85 2.22 2.59 2.83 2.95 2.78 2.38 1.75 1.35 1.12 0.97 0.78 0.64 0.57 0.55 0.52 0.52 0.53 0.54 0.54
0.02 0.03 0.02 0.01 0.02 0.04 0.07 0.08 0.13 0.16 0.12 0.13 0.32 0.69 0.78 0.74 0.71 0.64 0.53 0.53 0.62 0.76 1.21 1.84 2.40 2.72 2.70 2.52 2.12 1.64 1.26 0.94 0.81 0.66 0.54 0.40 0.33 0.29 0.28 0.29 0.31 0.33 0.33 0.33
0.02 0.03 0.02 0.02 0.04 0.05 0.08 0.06 0.05 0.06 0.10 0.29 0.41 0.78 0.80 0.79 0.73 0.52 0.49 0.56 0.66 0.87 1.36 1.98 2.36 2.30 2.15 1.81 1.32 0.99 0.80 0.60 0.50 0.42 0.40 0.34 0.27 0.25 0.25 0.23 0.24 0.24 0.22 0.23
0.02 0.03 0.03 0.03 0.04 0.04 0.05 0.04 0.04 0.07 0.15 0.29 0.41 0.62 0.75 0.74 0.75 0.40 0.35 0.45 0.56 0.77 0.99 1.17 1.27 1.19 1.04 0.84 0.82 0.78 0.69 0.62 0.52 0.44 0.41 0.35 0.26 0.24 0.23 0.23 0.24 0.26 0.26 0.24
0.03 0.03 0.03 0.03 0.03 0.03 0.04 0.05 0.11 0.19 0.32 0.61 0.60 0.66 0.82 0.78 0.66 0.33 0.19 0.26 0.44 0.56 0.56 0.53 0.49 0.44 0.43 0.40 0.46 0.48 0.46 0.52 0.53 0.48 0.41 0.36 0.31 0.26 0.23 0.22 0.21 0.21 0.23 0.25
0.09 0.07 0.05 0.05 0.05 0.05 0.05 0.09 0.30 0.59 0.87 0.88 0.48 0.50 0.77 0.75 0.47 0.22 0.10 0.10 0.17 0.30 0.38 0.41 0.40 0.37 0.33 0.28 0.27 0.29 0.27 0.31 0.33 0.33 0.30 0.30 0.30 0.26 0.22 0.19 0.16 0.17 0.17 0.20
0.15 0.14 0.09 0.06 0.05 0.06 0.05 0.06 0.16 0.30 0.35 0.42 0.44 0.81 0.89 0.48 0.25 0.12 0.05 0.04 0.09 0.16 0.22 0.26 0.26 0.27 0.24 0.19 0.18 0.16 0.16 0.18 0.18 0.16 0.16 0.18 0.20 0.19 0.19 0.23 0.18 0.17 0.19 0.20
0.06 0.08 0.07 0.06 0.06 0.06 0.04 0.03 0.05 0.07 0.12 0.31 0.54 0.77 0.57 0.28 0.18 0.07 0.03 0.02 0.04 0.08 0.10 0.10 0.11 0.13 0.14 0.13 0.13 0.12 0.13 0.12 0.11 0.09 0.10 0.11 0.13 0.15 0.17 0.19 0.18 0.17 0.22 0.21
0.04 0.03 0.05 0.05 0.06 0.06 0.05 0.04 0.05 0.06 0.13 0.26 0.44 0.75 0.68 0.32 0.17 0.05 0.02 0.02 0.04 0.05 0.06 0.06 0.06 0.06 0.06 0.07 0.09 0.09 0.09 0.11 0.09 0.07 0.05 0.04 0.06 0.09 0.12 0.12 0.14 0.15 0.16 0.19
0.03 0.02 0.04 0.05 0.06 0.07 0.06 0.05 0.05 0.06 0.06 0.12 0.29 0.46 0.30 0.17 0.09 0.05 0.02 0.01 0.02 0.03 0.03 0.03 0.03 0.03 0.03 0.04 0.05 0.06 0.06 0.09 0.08 0.06 0.04 0.04 0.05 0.06 0.09 0.12 0.14 0.15 0.14 0.13
0.02 0.02 0.03 0.07 0.08 0.09 0.08 0.07 0.07 0.08 0.07 0.06 0.12 0.19 0.13 0.12 0.08 0.04 0.01 0.01 0.01 0.01 0.01 0.01 0.01 0.01 0.02 0.03 0.03 0.04 0.05 0.07 0.06 0.04 0.04 0.04 0.04 0.04 0.05 0.08 0.11 0.12 0.13 0.13
0.02 0.02 0.04 0.13 0.19 0.14 0.08 0.06 0.06 0.05 0.04 0.05 0.14 0.20 0.11 0.06 0.05 0.03 0.01 0.01 0.00 0.00 0.00 0.00 0.01 0.01 0.01 0.02 0.02 0.03 0.03 0.04 0.03 0.02 0.03 0.03 0.03 0.03 0.04 0.05 0.07 0.09 0.11 0.13
0.03 0.02 0.03 0.12 0.22 0.22 0.14 0.09 0.07 0.05 0.04 0.05 0.09 0.19 0.12 0.10 0.06 0.04 0.02 0.01 0.00 0.00 0.00 0.00 0.01 0.01 0.01 0.01 0.01 0.01 0.01 0.02 0.02 0.02 0.03 0.04 0.04 0.05 0.05 0.04 0.04 0.05 0.08 0.11
0.02 0.01 0.01 0.02 0.06 0.09 0.11 0.11 0.08 0.05 0.03 0.05 0.07 0.11 0.12 0.17 0.09 0.04 0.02 0.01 0.01 0.00 0.01 0.01 0.01 0.01 0.02 0.02 0.02 0.03 0.03 0.04 0.05 0.06 0.08 0.08 0.08 0.09 0.09 0.09 0.09 0.08 0.09 0.10
0.03 0.03 0.01 0.01 0.04 0.06 0.08 0.11 0.07 0.04 0.03 0.03 0.04 0.10 0.13 0.13 0.08 0.06 0.05 0.03 0.03 0.03 0.04 0.05 0.06 0.06 0.06 0.06 0.05 0.05 0.06 0.06 0.07 0.09 0.09 0.09 0.12 0.11 0.11 0.11 0.11 0.11 0.12 0.15
0.06 0.03 0.02 0.02 0.05 0.05 0.09 0.08 0.07 0.07 0.06 0.05 0.07 0.11 0.12 0.13 0.13 0.16 0.16 0.16 0.16 0.14 0.12 0.09 0.08 0.06 0.05 0.04 0.04 0.04 0.04 0.06 0.08 0.10 0.11 0.14 0.17 0.18 0.17 0.16 0.15 0.15 0.17 0.21
0.09 0.05 0.03 0.04 0.07 0.10 0.09 0.08 0.06 0.08 0.09 0.09 0.12 0.15 0.18 0.22 0.26 0.32 0.34 0.27 0.17 0.11 0.09 0.07 0.06 0.05 0.05 0.05 0.07 0.07 0.09 0.11 0.14 0.16 0.17 0.22 0.26 0.27 0.27 0.27 0.24 0.26 0.29 0.30
0.11 0.08 0.06 0.06 0.09 0.10 0.11 0.13 0.13 0.12 0.14 0.16 0.22 0.26 0.30 0.30 0.24 0.21 0.16 0.11 0.08 0.07 0.07 0.08 0.09 0.10 0.09 0.09 0.12 0.14 0.15 0.19 0.23 0.25 0.27 0.32 0.39 0.45 0.44 0.41 0.41 0.42 0.42 0.39
0.15 0.12 0.13 0.11 0.14 0.16 0.17 0.23 0.21 0.21 0.33 0.28 0.26 0.23 0.20 0.21 0.31 0.27 0.16 0.11 0.09 0.08 0.07 0.08 0.08 0.08 0.11 0.13 0.13 0.14 0.18 0.23 0.31 0.35 0.34 0.37 0.46 0.56 0.58 0.55 0.55 0.57 0.57 0.53
0.21 0.23 0.20 0.17 0.19 0.16 0.21 0.19 0.17 0.29 0.37 0.28 0.29 0.29 0.26 0.32 0.35 0.30 0.18 0.12 0.10 0.10 0.08 0.08 0.07 0.07 0.08 0.11 0.14 0.18 0.22 0.26 0.29 0.35 0.38 0.40 0.47 0.57 0.57 0.61 0.65 0.66 0.66 0.66
0.22 0.22 0.24 0.26 0.34 0.30 0.26 0.23 0.28 0.37 0.29 0.25 0.23 0.21 0.19 0.18 0.14 0.13 0.12 0.10 0.10 0.10 0.10 0.09 0.09 0.10 0.12 0.14 0.17 0.21 0.24 0.24 0.27 0.29 0.31 0.34 0.42 0.49 0.50 0.60 0.64 0.68 0.69 0.70
0.31 0.27 0.26 0.30 0.36 0.28 0.25 0.25 0.25 0.24 0.22 0.18 0.17 0.13 0.14 0.16 0.14 0.11 0.10 0.11 0.10 0.09 0.08 0.08 0.09 0.11 0.14 0.18 0.23 0.29 0.31 0.32 0.33 0.32 0.32 0.35 0.42 0.56 0.68 0.71 0.67 0.71 0.75 0.73
0.33 0.22 0.20 0.27 0.32 0.31 0.28 0.25 0.19 0.17 0.14 0.09 0.10 0.14 0.13 0.11 0.11 0.11 0.12 0.10 0.08 0.07 0.05 0.06 0.08 0.09 0.11 0.13 0.17 0.23 0.28 0.33 0.38 0.39 0.39 0.40 0.45 0.57 0.81 0.93 0.87 0.80 0.79 0.77
0.13 0.15 0.19 0.27 0.30 0.27 0.28 0.22 0.16 0.12 0.09 0.09 0.09 0.10 0.10 0.07 0.07 0.07 0.07 0.04 0.04 0.04 0.05 0.06 0.08 0.10 0.11 0.12 0.16 0.21 0.28 0.36 0.40 0.39 0.38 0.38 0.44 0.57 0.79 0.95 0.94 0.79 0.76 0.74
0.06 0.08 0.11 0.21 0.22 0.22 0.25 0.19 0.14 0.13 0.13 0.13 0.11 0.09 0.08 0.06 0.06 0.07 0.06 0.05 0.05 0.05 0.06 0.08 0.10 0.13 0.15 0.18 0.24 0.28 0.35 0.43 0.49 0.48 0.44 0.44 0.47 0.56 0.76 0.97 1.03 0.83 0.65 0.63

GEFSCGP_prec_meanprecacc_096.txt.gz
Total_Precipitation_Accumulation
0.00 0.00 0.01 0.01 0.01 0.02 0.03 0.07 0.15 0.17 0.15 0.22 0.35 0.60 0.72 0.66 0.67 0.69 0.77 0.97 0.98 1.02 1.19 1.47 1.87 2.19 2.54 3.14 3.64 3.76 3.47 2.72 2.20 1.85 1.66 1.45 1.26 1.10 0.97 0.88 0.78 0.69 0.69 0.64
0.01 0.02 0.02 0.01 0.01 0.02 0.05 0.09 0.16 0.16 0.12 0.14 0.33 0.63 0.71 0.73 0.76 0.68 0.71 0.80 0.71 0.78 1.04 1.48 2.06 2.58 2.83 3.01 3.12 2.97 2.55 1.92 1.49 1.20 1.02 0.82 0.68 0.61 0.57 0.52 0.52 0.53 0.54 0.54
0.02 0.03 0.02 0.01 0.02 0.04 0.07 0.08 0.13 0.17 0.12 0.14 0.33 0.71 0.82 0.77 0.73 0.66 0.54 0.55 0.64 0.78 1.25 1.93 2.59 2.97 2.92 2.70 2.26 1.77 1.38 1.05 0.93 0.77 0.62 0.47 0.38 0.32 0.30 0.29 0.31 0.33 0.33 0.33
0.02 0.03 0.02 0.02 0.04 0.05 0.09 0.06 0.05 0.06 0.11 0.31 0.43 0.82 0.85 0.82 0.77 0.54 0.50 0.57 0.68 0.89 1.38 2.05 2.52 2.48 2.34 2.03 1.53 1.18 0.95 0.74 0.61 0.52 0.48 0.40 0.31 0.29 0.27 0.24 0.25 0.24 0.23 0.23
0.02 0.03 0.03 0.03 0.04 0.05 0.05 0.04 0.04 0.08 0.17 0.33 0.45 0.69 0.84 0.80 0.82 0.44 0.37 0.46 0.58 0.78 1.01 1.21 1.36 1.31 1.16 1.00 1.00 0.95 0.85 0.77 0.64 0.54 0.50 0.43 0.31 0.27 0.27 0.26 0.25 0.26 0.26 0.24
0.03 0.03 0.03 0.03 0.03 0.04 0.04 0.06 0.12 0.21 0.36 0.68 0.65 0.73 0.92 0.86 0.74 0.36 0.20 0.27 0.46 0.57 0.57 0.56 0.53 0.52 0.51 0.50 0.58 0.62 0.58 0.65 0.65 0.58 0.49 0.45 0.38 0.31 0.26 0.24 0.23 0.22 0.23 0.25
0.09 0.07 0.05 0.05 0.05 0.06 0.05 0.09 0.31 0.61 0.91 0.95 0.53 0.59 0.92 0.83 0.52 0.25 0.12 0.11 0.19 0.31 0.39 0.43 0.44 0.46 0.47 0.38 0.37 0.42 0.40 0.40 0.42 0.40 0.36 0.36 0.38 0.32 0.26 0.21 0.17 0.18 0.18 0.20
0.15 0.14 0.09 0.06 0.06 0.06 0.06 0.07 0.17 0.32 0.38 0.47 0.50 0.94 1.06 0.54 0.28 0.14 0.08 0.05 0.10 0.17 0.22 0.26 0.28 0.31 0.31 0.25 0.24 0.27 0.30 0.29 0.25 0.22 0.21 0.22 0.25 0.24 0.22 0.25 0.19 0.18 0.19 0.20
0.06 0.08 0.07 0.06 0.07 0.07 0.06 0.04 0.06 0.08 0.14 0.35 0.64 0.90 0.73 0.33 0.21 0.09 0.04 0.04 0.05 0.09 0.10 0.11 0.12 0.15 0.16 0.17 0.19 0.20 0.22 0.22 0.18 0.16 0.14 0.14 0.17 0.18 0.19 0.21 0.19 0.18 0.22 0.21
0.04 0.03 0.05 0.05 0.06 0.07 0.06 0.06 0.06 0.08 0.15 0.31 0.54 0.84 0.80 0.39 0.20 0.08 0.06 0.06 0.05 0.05 0.06 0.06 0.06 0.08 0.08 0.10 0.14 0.15 0.15 0.17 0.15 0.13 0.10 0.07 0.09 0.12 0.14 0.13 0.14 0.15 0.17 0.19
0.03 0.02 0.05 0.05 0.06 0.08 0.08 0.08 0.09 0.09 0.09 0.16 0.37 0.53 0.35 0.24 0.16 0.10 0.07 0.05 0.03 0.04 0.05 0.05 0.03 0.03 0.04 0.07 0.09 0.10 0.10 0.13 0.13 0.12 0.09 0.07 0.07 0.08 0.10 0.13 0.14 0.16 0.14 0.13
0.03 0.03 0.04 0.07 0.09 0.10 0.11 0.11 0.11 0.12 0.11 0.10 0.19 0.26 0.19 0.19 0.18 0.12 0.08 0.06 0.02 0.03 0.02 0.01 0.01 0.01 0.03 0.04 0.06 0.08 0.08 0.12 0.11 0.10 0.09 0.08 0.06 0.07 0.08 0.10 0.12 0.13 0.13 0.14
0.03 0.03 0.05 0.14 0.21 0.17 0.11 0.10 0.10 0.11 0.09 0.09 0.20 0.28 0.18 0.12 0.15 0.10 0.11 0.07 0.03 0.02 0.01 0.01 0.02 0.02 0.04 0.05 0.06 0.07 0.08 0.09 0.08 0.07 0.07 0.07 0.06 0.05 0.06 0.08 0.09 0.10 0.12 0.14
0.04 0.03 0.05 0.14 0.23 0.25 0.17 0.11 0.10 0.08 0.07 0.07 0.12 0.25 0.21 0.18 0.16 0.13 0.13 0.11 0.07 0.04 0.02 0.02 0.03 0.04 0.05 0.07 0.07 0.06 0.06 0.06 0.06 0.06 0.08 0.08 0.07 0.07 0.07 0.07 0.08 0.09 0.12 0.14
0.04 0.03 0.04 0.05 0.08 0.12 0.14 0.13 0.10 0.07 0.05 0.06 0.10 0.16 0.18 0.25 0.17 0.12 0.13 0.11 0.09 0.07 0.04 0.05 0.06 0.06 0.07 0.11 0.11 0.11 0.10 0.11 0.13 0.15 0.17 0.17 0.16 0.17 0.17 0.16 0.15 0.16 0.17 0.16
0.07 0.05 0.04 0.04 0.07 0.09 0.11 0.14 0.09 0.06 0.05 0.04 0.07 0.15 0.19 0.20 0.16 0.14 0.14 0.13 0.11 0.10 0.10 0.13 0.13 0.13 0.14 0.16 0.18 0.20 0.20 0.22 0.26 0.29 0.32 0.34 0.41 0.41 0.36 0.33 0.31 0.30 0.29 0.29
0.12 0.09 0.07 0.06 0.10 0.10 0.13 0.12 0.10 0.11 0.09 0.08 0.11 0.18 0.18 0.19 0.22 0.31 0.30 0.25 0.24 0.22 0.21 0.20 0.22 0.21 0.19 0.18 0.20 0.23 0.27 0.34 0.41 0.47 0.51 0.56 0.62 0.66 0.64 0.60 0.53 0.49 0.49 0.49
0.18 0.16 0.12 0.10 0.13 0.17 0.14 0.14 0.12 0.13 0.14 0.13 0.17 0.23 0.29 0.38 0.37 0.42 0.42 0.34 0.24 0.19 0.19 0.19 0.24 0.24 0.22 0.25 0.30 0.32 0.34 0.42 0.52 0.62 0.72 0.82 0.83 0.84 0.83 0.81 0.72 0.69 0.73 0.71
0.18 0.20 0.19 0.17 0.18 0.17 0.17 0.20 0.21 0.22 0.25 0.25 0.33 0.39 0.46 0.48 0.36 0.29 0.23 0.16 0.12 0.11 0.13 0.16 0.21 0.26 0.31 0.29 0.32 0.37 0.35 0.42 0.57 0.67 0.70 0.73 0.80 0.90 0.96 0.92 0.89 0.91 0.88 0.77
0.24 0.22 0.28 0.25 0.27 0.28 0.27 0.32 0.29 0.29 0.49 0.43 0.38 0.39 0.42 0.39 0.43 0.36 0.22 0.16 0.13 0.12 0.12 0.13 0.14 0.17 0.23 0.31 0.33 0.32 0.36 0.45 0.60 0.69 0.69 0.67 0.74 0.88 0.99 1.01 0.98 0.95 0.94 0.89
0.37 0.39 0.35 0.35 0.37 0.32 0.32 0.28 0.25 0.40 0.52 0.44 0.43 0.44 0.43 0.46 0.45 0.38 0.24 0.15 0.13 0.12 0.11 0.11 0.11 0.11 0.15 0.20 0.25 0.32 0.40 0.46 0.50 0.57 0.65 0.69 0.75 0.83 0.87 0.94 0.97 0.99 0.98 0.98
0.43 0.44 0.44 0.44 0.55 0.52 0.40 0.32 0.39 0.49 0.43 0.44 0.43 0.38 0.33 0.31 0.25 0.20 0.16 0.14 0.12 0.11 0.11 0.10 0.11 0.12 0.15 0.18 0.21 0.27 0.31 0.34 0.39 0.42 0.45 0.49 0.58 0.69 0.73 0.82 0.86 0.92 0.93 0.92
0.52 0.49 0.49 0.56 0.62 0.49 0.42 0.42 0.44 0.40 0.33 0.32 0.29 0.25 0.25 0.24 0.21 0.16 0.15 0.14 0.12 0.10 0.09 0.08 0.09 0.11 0.15 0.19 0.24 0.31 0.34 0.36 0.38 0.39 0.39 0.42 0.49 0.65 0.80 0.84 0.82 0.85 0.86 0.84
0.55 0.42 0.46 0.60 0.66 0.61 0.54 0.48 0.40 0.36 0.30 0.23 0.21 0.23 0.21 0.18 0.16 0.17 0.16 0.12 0.09 0.07 0.06 0.06 0.08 0.09 0.11 0.13 0.17 0.23 0.28 0.34 0.40 0.43 0.43 0.46 0.52 0.65 0.88 1.00 0.93 0.86 0.85 0.82
0.40 0.39 0.43 0.58 0.69 0.58 0.50 0.43 0.34 0.28 0.24 0.22 0.20 0.17 0.15 0.13 0.14 0.15 0.13 0.08 0.05 0.04 0.05 0.06 0.08 0.11 0.11 0.12 0.16 0.21 0.28 0.36 0.40 0.40 0.38 0.39 0.46 0.60 0.82 0.99 0.97 0.83 0.80 0.77
0.29 0.34 0.34 0.43 0.47 0.46 0.47 0.38 0.30 0.25 0.23 0.23 0.20 0.15 0.13 0.11 0.12 0.14 0.12 0.08 0.07 0.06 0.06 0.09 0.11 0.13 0.15 0.18 0.24 0.28 0.35 0.43 0.49 0.48 0.45 0.45 0.48 0.56 0.77 0.98 1.05 0.85 0.67 0.65

GEFSCGP_prec_meanprecacc_102.txt.gz
Total_Precipitation_Accumulation
0.00 0.00 0.01 0.01 0.01 0.02 0.03 0.07 0.15 0.17 0.16 0.22 0.36 0.60 0.72 0.67 0.68 0.71 0.79 0.99 1.01 1.06 1.27 1.60 2.02 2.41 2.89 3.57 3.99 4.03 3.72 2.94 2.36 1.96 1.74 1.51 1.32 1.15 1.00 0.89 0.78 0.69 0.69 0.64
0.01 0.02 0.02 0.01 0.01 0.03 0.05 0.09 0.17 0.16 0.12 0.14 0.33 0.63 0.71 0.74 0.77 0.69 0.73 0.82 0.74 0.82 1.11 1.57 2.17 2.75 3.08 3.39 3.49 3.31 2.82 2.14 1.65 1.32 1.12 0.91 0.77 0.67 0.60 0.53 0.52 0.53 0.54 0.54
0.02 0.03 0.02 0.01 0.02 0.04 0.08 0.09 0.14 0.17 0.12 0.14 0.33 0.71 0.82 0.78 0.74 0.67 0.56 0.57 0.67 0.81 1.29 1.98 2.67 3.12 3.19 2.99 2.57 2.10 1.73 1.32 1.12 0.93 0.75 0.59 0.48 0.39 0.34 0.31 0.32 0.34 0.33 0.33
0.02 0.03 0.02 0.02 0.04 0.05 0.09 0.07 0.05 0.07 0.11 0.31 0.44 0.82 0.85 0.83 0.78 0.54 0.51 0.58 0.69 0.91 1.41 2.08 2.57 2.58 2.54 2.24 1.74 1.40 1.20 0.98 0.80 0.69 0.63 0.51 0.39 0.36 0.32 0.29 0.27 0.26 0.23 0.23
0.02 0.03 0.03 0.03 0.04 0.05 0.05 0.04 0.04 0.08 0.18 0.33 0.46 0.69 0.84 0.81 0.83 0.45 0.37 0.47 0.59 0.79 1.02 1.22 1.39 1.36 1.30 1.14 1.14 1.12 1.03 0.97 0.82 0.68 0.62 0.53 0.37 0.31 0.31 0.31 0.29 0.28 0.27 0.24
0.03 0.03 0.03 0.03 0.03 0.04 0.04 0.06 0.12 0.21 0.36 0.68 0.66 0.73 0.93 0.87 0.74 0.37 0.20 0.27 0.46 0.58 0.58 0.57 0.56 0.56 0.63 0.60 0.68 0.75 0.70 0.78 0.80 0.70 0.58 0.50 0.42 0.35 0.32 0.29 0.26 0.24 0.24 0.26
0.09 0.07 0.05 0.05 0.05 0.06 0.05 0.09 0.31 0.61 0.91 0.95 0.53 0.59 0.93 0.83 0.52 0.25 0.12 0.12 0.19 0.32 0.39 0.45 0.46 0.49 0.56 0.46 0.45 0.52 0.51 0.51 0.54 0.51 0.43 0.41 0.42 0.36 0.31 0.27 0.21 0.20 0.18 0.20
0.15 0.14 0.09 0.06 0.06 0.06 0.06 0.07 0.18 0.33 0.38 0.47 0.51 0.94 1.06 0.54 0.28 0.14 0.08 0.05 0.10 0.17 0.23 0.27 0.29 0.34 0.38 0.31 0.31 0.36 0.41 0.39 0.35 0.31 0.28 0.29 0.31 0.28 0.27 0.30 0.24 0.20 0.20 0.20
0.06 0.08 0.07 0.07 0.07 0.07 0.06 0.05 0.07 0.09 0.15 0.36 0.64 0.90 0.73 0.34 0.21 0.09 0.04 0.04 0.05 0.09 0.11 0.11 0.13 0.18 0.20 0.21 0.23 0.26 0.30 0.30 0.26 0.23 0.21 0.22 0.24 0.23 0.24 0.25 0.24 0.21 0.24 0.22
0.04 0.03 0.05 0.05 0.07 0.07 0.06 0.06 0.07 0.09 0.17 0.32 0.54 0.85 0.80 0.40 0.21 0.08 0.06 0.07 0.05 0.06 0.06 0.06 0.07 0.09 0.11 0.13 0.19 0.22 0.23 0.26 0.24 0.20 0.16 0.12 0.14 0.17 0.19 0.17 0.19 0.20 0.20 0.20
0.03 0.02 0.05 0.05 0.07 0.08 0.09 0.08 0.10 0.10 0.10 0.17 0.38 0.54 0.35 0.25 0.16 0.11 0.08 0.05 0.04 0.04 0.05 0.06 0.04 0.04 0.06 0.09 0.13 0.16 0.19 0.23 0.22 0.19 0.16 0.13 0.13 0.13 0.15 0.17 0.19 0.21 0.18 0.15
0.03 0.03 0.04 0.08 0.10 0.10 0.11 0.11 0.12 0.13 0.11 0.11 0.19 0.27 0.20 0.20 0.18 0.13 0.08 0.06 0.03 0.03 0.03 0.02 0.02 0.02 0.04 0.06 0.09 0.12 0.15 0.20 0.18 0.17 0.16 0.13 0.11 0.10 0.12 0.15 0.17 0.18 0.18 0.16
0.03 0.04 0.06 0.15 0.21 0.17 0.11 0.10 0.11 0.11 0.09 0.10 0.21 0.28 0.18 0.13 0.15 0.11 0.11 0.08 0.04 0.03 0.03 0.03 0.03 0.04 0.07 0.08 0.10 0.13 0.15 0.16 0.15 0.15 0.14 0.13 0.11 0.09 0.10 0.13 0.15 0.14 0.15 0.17
0.04 0.04 0.06 0.15 0.24 0.26 0.18 0.12 0.11 0.09 0.07 0.08 0.13 0.26 0.21 0.18 0.17 0.14 0.14 0.12 0.08 0.05 0.03 0.03 0.04 0.06 0.08 0.10 0.11 0.13 0.16 0.14 0.14 0.16 0.16 0.15 0.15 0.15 0.14 0.13 0.14 0.14 0.15 0.17
0.04 0.04 0.04 0.05 0.08 0.12 0.14 0.13 0.10 0.07 0.05 0.07 0.10 0.16 0.19 0.25 0.17 0.12 0.14 0.12 0.10 0.08 0.05 0.07 0.07 0.08 0.10 0.12 0.14 0.17 0.19 0.21 0.22 0.24 0.26 0.25 0.25 0.27 0.27 0.24 0.23 0.24 0.25 0.24
0.07 0.06 0.04 0.04 0.07 0.10 0.11 0.14 0.10 0.07 0.06 0.05 0.08 0.16 0.20 0.21 0.17 0.15 0.15 0.15 0.12 0.12 0.11 0.14 0.15 0.16 0.17 0.18 0.21 0.24 0.25 0.31 0.36 0.42 0.44 0.45 0.52 0.53 0.47 0.43 0.43 0.42 0.42 0.43
0.12 0.10 0.07 0.07 0.10 0.10 0.13 0.12 0.11 0.12 0.10 0.09 0.12 0.19 0.20 0.20 0.23 0.32 0.31 0.26 0.25 0.24 0.23 0.24 0.26 0.25 0.24 0.23 0.26 0.30 0.34 0.42 0.50 0.59 0.66 0.71 0.75 0.81 0.80 0.75 0.68 0.63 0.65 0.67
0.18 0.17 0.13 0.11 0.14 0.18 0.15 0.16 0.13 0.14 0.15 0.14 0.18 0.24 0.30 0.39 0.40 0.46 0.46 0.37 0.27 0.21 0.22 0.23 0.29 0.31 0.29 0.32 0.37 0.40 0.45 0.54 0.66 0.79 0.90 1.00 0.99 0.97 0.95 0.93 0.83 0.82 0.88 0.89
0.18 0.20 0.21 0.18 0.20 0.18 0.18 0.22 0.23 0.24 0.27 0.27 0.35 0.41 0.49 0.52 0.43 0.36 0.29 0.21 0.17 0.16 0.17 0.21 0.26 0.32 0.38 0.37 0.42 0.47 0.47 0.53 0.68 0.78 0.81 0.84 0.91 0.99 1.05 1.02 1.00 1.03 1.02 0.92
0.25 0.23 0.31 0.28 0.29 0.30 0.29 0.35 0.32 0.32 0.52 0.47 0.42 0.44 0.48 0.46 0.51 0.46 0.31 0.22 0.18 0.16 0.16 0.18 0.19 0.22 0.29 0.39 0.41 0.42 0.46 0.56 0.69 0.78 0.77 0.74 0.81 0.95 1.07 1.11 1.10 1.07 1.05 1.02
0.40 0.42 0.38 0.37 0.40 0.36 0.37 0.32 0.30 0.44 0.56 0.50 0.49 0.50 0.49 0.52 0.51 0.46 0.30 0.21 0.17 0.16 0.14 0.15 0.14 0.15 0.19 0.26 0.31 0.38 0.46 0.53 0.56 0.62 0.69 0.75 0.83 0.93 0.99 1.08 1.12 1.13 1.15 1.18
0.47 0.50 0.48 0.48 0.60 0.58 0.46 0.37 0.45 0.55 0.48 0.52 0.51 0.45 0.41 0.38 0.31 0.27 0.23 0.19 0.17 0.15 0.14 0.13 0.13 0.15 0.18 0.21 0.24 0.31 0.34 0.36 0.41 0.43 0.47 0.51 0.62 0.74 0.81 0.94 0.98 1.04 1.05 1.05
0.58 0.55 0.55 0.65 0.71 0.57 0.51 0.49 0.51 0.47 0.40 0.39 0.39 0.35 0.35 0.35 0.31 0.24 0.22 0.19 0.15 0.12 0.11 0.09 0.11 0.13 0.17 0.21 0.26 0.33 0.35 0.37 0.39 0.39 0.40 0.43 0.50 0.67 0.82 0.87 0.85 0.88 0.90 0.89
0.64 0.51 0.54 0.75 0.80 0.70 0.62 0.57 0.50 0.48 0.41 0.33 0.31 0.35 0.34 0.33 0.27 0.25 0.23 0.16 0.10 0.08 0.07 0.07 0.09 0.10 0.12 0.14 0.18 0.24 0.29 0.34 0.41 0.43 0.44 0.47 0.53 0.67 0.91 1.05 0.98 0.92 0.90 0.87
0.54 0.54 0.55 0.70 0.81 0.67 0.59 0.55 0.50 0.47 0.41 0.36 0.33 0.30 0.25 0.22 0.24 0.23 0.18 0.11 0.07 0.05 0.05 0.06 0.08 0.11 0.11 0.12 0.16 0.21 0.28 0.36 0.40 0.40 0.39 0.39 0.46 0.61 0.83 1.00 1.00 0.88 0.85 0.83
0.40 0.47 0.48 0.56 0.57 0.59 0.61 0.55 0.48 0.44 0.42 0.39 0.34 0.28 0.24 0.20 0.19 0.19 0.14 0.09 0.07 0.06 0.07 0.09 0.11 0.13 0.15 0.18 0.24 0.28 0.35 0.43 0.49 0.48 0.45 0.45 0.48 0.56 0.77 0.98 1.05 0.86 0.70 0.68

GEFSCGP_prec_meanprecacc_108.txt.gz
Total_Precipitation_Accumulation
0.00 0.00 0.01 0.01 0.01 0.02 0.03 0.07 0.15 0.17 0.16 0.22 0.36 0.60 0.72 0.67 0.68 0.71 0.79 1.00 1.04 1.08 1.31 1.65 2.07 2.49 3.01 3.75 4.15 4.19 3.85 3.05 2.44 2.02 1.81 1.60 1.40 1.22 1.06 0.93 0.81 0.71 0.70 0.65
0.01 0.02 0.02 0.01 0.01 0.03 0.05 0.09 0.17 0.16 0.12 0.14 0.33 0.63 0.71 0.74 0.77 0.69 0.73 0.83 0.76 0.84 1.13 1.61 2.22 2.81 3.16 3.50 3.64 3.48 2.96 2.25 1.76 1.42 1.22 1.02 0.87 0.74 0.66 0.58 0.55 0.54 0.55 0.54
0.02 0.03 0.02 0.01 0.02 0.04 0.08 0.09 0.14 0.17 0.12 0.14 0.33 0.71 0.82 0.78 0.74 0.68 0.56 0.57 0.67 0.83 1.31 2.00 2.70 3.16 3.24 3.07 2.69 2.24 1.84 1.42 1.23 1.06 0.87 0.69 0.59 0.48 0.39 0.34 0.34 0.35 0.34 0.33
0.02 0.03 0.02 0.02 0.04 0.05 0.09 0.07 0.05 0.07 0.11 0.31 0.44 0.82 0.85 0.83 0.78 0.54 0.51 0.59 0.69 0.91 1.42 2.09 2.59 2.62 2.59 2.31 1.85 1.54 1.35 1.13 0.94 0.83 0.78 0.63 0.50 0.44 0.37 0.31 0.29 0.27 0.24 0.24
0.02 0.03 0.03 0.03 0.04 0.05 0.05 0.04 0.04 0.08 0.18 0.33 0.46 0.69 0.84 0.81 0.83 0.45 0.37 0.47 0.59 0.80 1.02 1.23 1.40 1.39 1.35 1.21 1.23 1.23 1.18 1.11 0.96 0.82 0.77 0.67 0.49 0.41 0.36 0.34 0.31 0.29 0.27 0.25
0.03 0.03 0.03 0.03 0.03 0.04 0.04 0.06 0.12 0.21 0.36 0.68 0.66 0.74 0.93 0.87 0.74 0.37 0.20 0.27 0.47 0.58 0.58 0.58 0.57 0.58 0.66 0.63 0.74 0.83 0.81 0.88 0.90 0.81 0.72 0.62 0.51 0.41 0.36 0.32 0.28 0.25 0.25 0.26
0.09 0.07 0.05 0.05 0.05 0.06 0.05 0.09 0.31 0.61 0.91 0.95 0.53 0.59 0.93 0.83 0.52 0.25 0.12 0.12 0.19 0.32 0.39 0.45 0.47 0.50 0.59 0.48 0.48 0.58 0.59 0.59 0.62 0.60 0.54 0.50 0.50 0.43 0.36 0.30 0.23 0.21 0.19 0.20
0.15 0.14 0.09 0.06 0.06 0.06 0.06 0.07 0.18 0.33 0.38 0.47 0.51 0.95 1.06 0.54 0.28 0.14 0.08 0.05 0.10 0.18 0.23 0.28 0.31 0.37 0.43 0.35 0.34 0.41 0.48 0.45 0.41 0.39 0.38 0.37 0.39 0.34 0.31 0.34 0.27 0.22 0.21 0.20
0.06 0.08 0.07 0.07 0.07 0.07 0.06 0.05 0.07 0.09 0.15 0.36 0.64 0.91 0.73 0.34 0.21 0.09 0.04 0.04 0.05 0.09 0.11 0.12 0.14 0.19 0.24 0.25 0.27 0.31 0.36 0.37 0.32 0.29 0.27 0.28 0.30 0.30 0.29 0.30 0.28 0.24 0.26 0.23
0.04 0.03 0.05 0.05 0.07 0.07 0.06 0.06 0.07 0.09 0.17 0.32 0.55 0.85 0.81 0.40 0.21 0.08 0.06 0.07 0.06 0.06 0.07 0.07 0.08 0.10 0.13 0.17 0.24 0.27 0.31 0.34 0.30 0.24 0.21 0.18 0.21 0.25 0.28 0.26 0.25 0.24 0.23 0.22
0.03 0.02 0.05 0.05 0.07 0.08 0.09 0.08 0.10 0.10 0.10 0.18 0.38 0.54 0.35 0.25 0.16 0.11 0.08 0.05 0.04 0.04 0.06 0.06 0.04 0.04 0.07 0.12 0.17 0.19 0.26 0.33 0.30 0.25 0.22 0.19 0.19 0.19 0.22 0.26 0.27 0.27 0.25 0.19
0.03 0.03 0.04 0.08 0.10 0.10 0.11 0.11 0.12 0.13 0.12 0.11 0.20 0.27 0.20 0.20 0.18 0.13 0.08 0.06 0.03 0.03 0.03 0.02 0.02 0.03 0.05 0.07 0.10 0.14 0.18 0.28 0.27 0.26 0.24 0.19 0.17 0.17 0.19 0.22 0.24 0.24 0.25 0.23
0.03 0.04 0.06 0.15 0.21 0.17 0.12 0.10 0.11 0.11 0.09 0.10 0.21 0.29 0.18 0.13 0.15 0.11 0.11 0.08 0.04 0.03 0.03 0.03 0.03 0.04 0.08 0.09 0.11 0.15 0.17 0.24 0.30 0.27 0.24 0.22 0.18 0.15 0.17 0.20 0.22 0.22 0.24 0.26
0.04 0.04 0.06 0.15 0.24 0.26 0.18 0.12 0.11 0.09 0.07 0.08 0.13 0.26 0.21 0.19 0.17 0.14 0.14 0.12 0.09 0.05 0.04 0.04 0.05 0.06 0.09 0.11 0.13 0.15 0.19 0.20 0.24 0.27 0.26 0.23 0.22 0.21 0.21 0.19 0.21 0.21 0.24 0.28
0.04 0.04 0.04 0.05 0.09 0.12 0.15 0.13 0.10 0.07 0.05 0.07 0.10 0.16 0.19 0.25 0.17 0.12 0.14 0.12 0.11 0.08 0.06 0.07 0.08 0.08 0.10 0.13 0.15 0.18 0.20 0.26 0.30 0.32 0.35 0.34 0.33 0.34 0.33 0.30 0.29 0.31 0.32 0.33
0.07 0.06 0.04 0.04 0.07 0.10 0.11 0.14 0.10 0.07 0.06 0.05 0.08 0.16 0.20 0.21 0.17 0.15 0.15 0.15 0.13 0.12 0.12 0.15 0.16 0.16 0.17 0.19 0.22 0.25 0.26 0.34 0.40 0.48 0.52 0.52 0.59 0.61 0.55 0.51 0.51 0.49 0.49 0.52
0.12 0.10 0.07 0.07 0.10 0.10 0.13 0.12 0.11 0.12 0.10 0.09 0.12 0.19 0.20 0.20 0.23 0.32 0.31 0.27 0.25 0.24 0.24 0.24 0.27 0.25 0.25 0.24 0.27 0.32 0.36 0.45 0.54 0.64 0.74 0.79 0.82 0.88 0.86 0.81 0.76 0.71 0.73 0.77
0.18 0.17 0.14 0.11 0.14 0.19 0.15 0.16 0.13 0.14 0.15 0.14 0.18 0.24 0.30 0.39 0.40 0.47 0.46 0.37 0.27 0.22 0.23 0.25 0.31 0.33 0.30 0.34 0.39 0.42 0.48 0.58 0.71 0.84 0.96 1.07 1.05 1.02 1.01 0.99 0.89 0.88 0.95 0.98
0.19 0.22 0.22 0.20 0.21 0.18 0.18 0.22 0.23 0.24 0.27 0.27 0.35 0.41 0.49 0.53 0.43 0.36 0.30 0.21 0.17 0.16 0.19 0.24 0.29 0.35 0.40 0.40 0.44 0.49 0.49 0.57 0.73 0.85 0.88 0.90 0.96 1.03 1.10 1.08 1.07 1.11 1.11 1.03
0.26 0.25 0.33 0.30 0.31 0.31 0.30 0.36 0.33 0.33 0.53 0.47 0.43 0.45 0.49 0.46 0.52 0.47 0.32 0.24 0.19 0.17 0.18 0.20 0.22 0.25 0.33 0.42 0.44 0.45 0.50 0.59 0.72 0.82 0.82 0.78 0.85 0.99 1.11 1.16 1.16 1.14 1.12 1.08
0.42 0.44 0.40 0.40 0.43 0.37 0.37 0.33 0.31 0.47 0.58 0.52 0.52 0.52 0.52 0.55 0.53 0.49 0.32 0.23 0.20 0.18 0.16 0.17 0.17 0.17 0.23 0.30 0.35 0.41 0.49 0.56 0.59 0.65 0.72 0.77 0.86 0.97 1.03 1.11 1.15 1.18 1.20 1.23
0.51 0.54 0.53 0.52 0.64 0.61 0.47 0.40 0.50 0.60 0.51 0.55 0.55 0.49 0.45 0.41 0.34 0.29 0.25 0.22 0.19 0.17 0.16 0.15 0.16 0.17 0.20 0.23 0.27 0.33 0.36 0.38 0.42 0.45 0.49 0.52 0.63 0.75 0.83 0.96 1.00 1.06 1.08 1.08
0.63 0.61 0.61 0.70 0.76 0.61 0.56 0.56 0.60 0.57 0.47 0.45 0.44 0.41 0.40 0.40 0.35 0.27 0.25 0.22 0.17 0.14 0.12 0.10 0.12 0.14 0.18 0.23 0.28 0.35 0.37 0.39 0.40 0.41 0.41 0.44 0.51 0.67 0.83 0.88 0.86 0.89 0.91 0.90
0.71 0.58 0.63 0.82 0.86 0.77 0.70 0.65 0.57 0.56 0.50 0.42 0.39 0.43 0.43 0.41 0.34 0.31 0.28 0.21 0.14 0.10 0.07 0.08 0.09 0.11 0.13 0.14 0.19 0.25 0.30 0.36 0.42 0.44 0.45 0.47 0.53 0.67 0.91 1.05 0.99 0.92 0.91 0.88
0.61 0.64 0.66 0.78 0.90 0.78 0.69 0.63 0.59 0.57 0.51 0.46 0.43 0.43 0.38 0.32 0.32 0.30 0.24 0.16 0.11 0.08 0.07 0.08 0.09 0.11 0.12 0.13 0.16 0.22 0.29 0.37 0.41 0.41 0.40 0.40 0.47 0.61 0.83 1.00 1.00 0.88 0.86 0.84
0.49 0.59 0.62 0.70 0.72 0.75 0.75 0.66 0.59 0.60 0.58 0.51 0.45 0.42 0.38 0.31 0.28 0.25 0.18 0.12 0.10 0.08 0.08 0.10 0.12 0.14 0.16 0.19 0.24 0.28 0.35 0.44 0.50 0.48 0.45 0.45 0.48 0.57 0.77 0.99 1.05 0.86 0.70 0.69

GEFSCGP_prec_meanprecacc_114.txt.gz
Total_Precipitation_Accumulation
0.00 0.00 0.01 0.01 0.01 0.02 0.03 0.07 0.15 0.17 0.16 0.22 0.36 0.60 0.72 0.68 0.68 0.71 0.80 1.01 1.06 1.12 1.35 1.71 2.16 2.60 3.14 3.93 4.36 4.41 4.05 3.24 2.65 2.20 1.94 1.72 1.49 1.30 1.12 0.98 0.84 0.73 0.72 0.67
0.01 0.02 0.02 0.01 0.01 0.03 0.05 0.09 0.17 0.16 0.12 0.14 0.34 0.64 0.71 0.74 0.78 0.69 0.73 0.83 0.78 0.87 1.17 1.68 2.30 2.90 3.27 3.62 3.77 3.64 3.14 2.42 1.93 1.59 1.37 1.16 0.99 0.81 0.70 0.61 0.59 0.57 0.57 0.55
0.02 0.03 0.02 0.01 0.02 0.04 0.08 0.09 0.14 0.17 0.12 0.14 0.33 0.73 0.84 0.79 0.76 0.68 0.56 0.57 0.68 0.84 1.34 2.03 2.76 3.23 3.32 3.18 2.80 2.36 1.99 1.58 1.41 1.26 1.04 0.87 0.77 0.63 0.48 0.40 0.38 0.38 0.36 0.35
0.02 0.03 0.02 0.02 0.04 0.05 0.09 0.07 0.05 0.07 0.11 0.32 0.44 0.84 0.89 0.87 0.81 0.57 0.52 0.60 0.70 0.92 1.44 2.13 2.63 2.67 2.65 2.39 1.93 1.65 1.49 1.29 1.11 1.02 0.94 0.77 0.60 0.55 0.45 0.36 0.33 0.31 0.26 0.25
0.02 0.03 0.03 0.03 0.04 0.05 0.05 0.04 0.04 0.08 0.18 0.33 0.46 0.72 0.89 0.87 0.91 0.50 0.38 0.47 0.59 0.80 1.04 1.26 1.44 1.43 1.41 1.28 1.31 1.33 1.30 1.26 1.11 0.97 0.92 0.85 0.65 0.53 0.45 0.42 0.37 0.34 0.30 0.26
0.03 0.03 0.03 0.03 0.03 0.04 0.04 0.06 0.12 0.21 0.36 0.70 0.68 0.76 0.99 0.90 0.77 0.38 0.21 0.27 0.47 0.58 0.59 0.60 0.61 0.62 0.71 0.69 0.80 0.92 0.92 1.01 1.03 0.95 0.85 0.79 0.67 0.55 0.49 0.43 0.35 0.29 0.27 0.27
0.09 0.07 0.05 0.05 0.05 0.06 0.05 0.09 0.31 0.63 0.97 1.02 0.58 0.64 0.96 0.84 0.53 0.25 0.12 0.12 0.19 0.32 0.41 0.47 0.50 0.55 0.62 0.52 0.54 0.66 0.69 0.69 0.73 0.72 0.66 0.64 0.66 0.60 0.51 0.41 0.31 0.27 0.21 0.22
0.15 0.14 0.09 0.06 0.06 0.06 0.06 0.07 0.18 0.34 0.43 0.55 0.56 0.99 1.08 0.55 0.28 0.14 0.08 0.05 0.10 0.18 0.25 0.29 0.33 0.39 0.45 0.37 0.38 0.49 0.56 0.53 0.51 0.50 0.50 0.49 0.54 0.48 0.43 0.46 0.37 0.29 0.25 0.22
0.06 0.08 0.07 0.07 0.07 0.07 0.06 0.05 0.07 0.09 0.15 0.38 0.67 0.94 0.77 0.36 0.22 0.09 0.04 0.04 0.05 0.10 0.12 0.14 0.16 0.20 0.25 0.26 0.30 0.37 0.44 0.44 0.39 0.40 0.39 0.38 0.42 0.43 0.43 0.41 0.37 0.30 0.32 0.27
0.04 0.03 0.05 0.05 0.07 0.07 0.06 0.06 0.07 0.09 0.17 0.34 0.58 0.89 0.88 0.43 0.22 0.08 0.06 0.07 0.06 0.07 0.08 0.08 0.08 0.10 0.14 0.19 0.27 0.34 0.39 0.40 0.36 0.34 0.32 0.26 0.30 0.35 0.43 0.39 0.34 0.32 0.31 0.28
0.03 0.02 0.05 0.05 0.07 0.08 0.09 0.08 0.10 0.10 0.11 0.19 0.43 0.63 0.43 0.29 0.18 0.11 0.08 0.05 0.04 0.05 0.07 0.07 0.04 0.04 0.07 0.14 0.20 0.24 0.32 0.40 0.37 0.35 0.35 0.32 0.30 0.31 0.34 0.38 0.38 0.37 0.34 0.28
0.03 0.03 0.04 0.08 0.10 0.10 0.11 0.11 0.12 0.13 0.12 0.11 0.21 0.31 0.23 0.25 0.24 0.15 0.09 0.06 0.03 0.04 0.05 0.03 0.02 0.03 0.05 0.08 0.13 0.18 0.22 0.33 0.35 0.35 0.36 0.33 0.30 0.29 0.30 0.33 0.35 0.34 0.34 0.34
0.03 0.04 0.06 0.15 0.21 0.17 0.12 0.10 0.11 0.11 0.09 0.10 0.23 0.31 0.22 0.17 0.21 0.14 0.12 0.08 0.04 0.04 0.05 0.03 0.03 0.05 0.08 0.10 0.13 0.18 0.21 0.29 0.38 0.37 0.36 0.36 0.33 0.29 0.30 0.33 0.35 0.33 0.36 0.38
0.04 0.04 0.06 0.15 0.24 0.27 0.19 0.12 0.11 0.09 0.07 0.08 0.13 0.28 0.25 0.23 0.20 0.18 0.15 0.12 0.09 0.06 0.06 0.05 0.06 0.07 0.10 0.13 0.15 0.19 0.24 0.25 0.30 0.36 0.39 0.37 0.37 0.35 0.33 0.32 0.34 0.33 0.36 0.39
0.04 0.04 0.04 0.05 0.09 0.14 0.19 0.16 0.12 0.08 0.06 0.07 0.10 0.19 0.22 0.29 0.21 0.18 0.18 0.14 0.12 0.09 0.08 0.09 0.09 0.09 0.11 0.15 0.18 0.22 0.26 0.33 0.38 0.42 0.47 0.48 0.49 0.48 0.46 0.42 0.41 0.43 0.43 0.43
0.07 0.06 0.04 0.04 0.07 0.10 0.12 0.16 0.11 0.08 0.06 0.05 0.08 0.18 0.24 0.25 0.19 0.18 0.18 0.20 0.16 0.13 0.13 0.16 0.17 0.17 0.19 0.21 0.24 0.29 0.32 0.41 0.48 0.58 0.63 0.64 0.73 0.74 0.68 0.65 0.66 0.65 0.64 0.67
0.12 0.10 0.08 0.07 0.10 0.11 0.14 0.13 0.11 0.12 0.10 0.09 0.12 0.20 0.22 0.25 0.27 0.34 0.32 0.30 0.28 0.25 0.25 0.26 0.28 0.27 0.26 0.26 0.29 0.34 0.40 0.51 0.61 0.74 0.85 0.93 1.00 1.06 1.03 0.99 0.98 0.92 0.94 0.97
0.19 0.19 0.15 0.12 0.15 0.20 0.16 0.16 0.13 0.14 0.15 0.14 0.18 0.25 0.33 0.43 0.47 0.52 0.49 0.41 0.31 0.23 0.24 0.26 0.33 0.35 0.32 0.36 0.42 0.47 0.56 0.68 0.81 0.96 1.10 1.24 1.23 1.23 1.22 1.19 1.09 1.05 1.11 1.14
0.20 0.24 0.25 0.21 0.23 0.20 0.20 0.24 0.23 0.24 0.28 0.28 0.35 0.42 0.53 0.56 0.47 0.41 0.33 0.27 0.21 0.18 0.19 0.25 0.32 0.39 0.44 0.44 0.49 0.55 0.56 0.66 0.83 0.96 1.01 1.06 1.13 1.20 1.25 1.22 1.21 1.24 1.24 1.14
0.30 0.30 0.38 0.33 0.34 0.33 0.32 0.38 0.34 0.33 0.54 0.50 0.45 0.48 0.51 0.52 0.58 0.51 0.35 0.26 0.22 0.20 0.20 0.21 0.24 0.29 0.37 0.47 0.50 0.51 0.57 0.67 0.81 0.92 0.92 0.90 0.99 1.12 1.21 1.26 1.27 1.25 1.21 1.17
0.48 0.51 0.46 0.45 0.47 0.39 0.39 0.34 0.32 0.50 0.63 0.54 0.54 0.55 0.56 0.62 0.63 0.56 0.37 0.26 0.22 0.21 0.20 0.20 0.20 0.23 0.29 0.37 0.44 0.51 0.58 0.64 0.67 0.74 0.83 0.90 1.01 1.11 1.16 1.23 1.25 1.26 1.26 1.30
0.55 0.59 0.58 0.58 0.70 0.66 0.50 0.41 0.52 0.65 0.53 0.56 0.58 0.54 0.53 0.50 0.42 0.36 0.31 0.27 0.23 0.21 0.20 0.19 0.21 0.24 0.28 0.32 0.35 0.42 0.45 0.46 0.49 0.53 0.57 0.61 0.74 0.87 0.93 1.04 1.08 1.13 1.14 1.12
0.66 0.66 0.67 0.75 0.80 0.66 0.59 0.59 0.62 0.58 0.49 0.49 0.52 0.49 0.52 0.53 0.45 0.34 0.30 0.29 0.27 0.21 0.17 0.15 0.16 0.20 0.24 0.28 0.34 0.41 0.43 0.44 0.44 0.45 0.46 0.49 0.55 0.72 0.87 0.92 0.90 0.93 0.95 0.93
0.74 0.62 0.68 0.86 0.90 0.82 0.77 0.72 0.61 0.58 0.53 0.50 0.53 0.59 0.58 0.54 0.43 0.37 0.34 0.26 0.22 0.17 0.12 0.11 0.12 0.15 0.17 0.18 0.23 0.30 0.34 0.39 0.45 0.47 0.48 0.50 0.56 0.69 0.94 1.07 1.01 0.94 0.93 0.90
0.66 0.70 0.74 0.85 0.95 0.83 0.74 0.69 0.65 0.64 0.59 0.57 0.57 0.62 0.60 0.47 0.41 0.38 0.31 0.22 0.17 0.14 0.11 0.11 0.12 0.14 0.14 0.14 0.18 0.24 0.31 0.39 0.43 0.42 0.41 0.42 0.49 0.63 0.84 1.01 1.01 0.89 0.86 0.85
0.55 0.65 0.71 0.82 0.79 0.81 0.82 0.74 0.68 0.70 0.70 0.65 0.61 0.64 0.61 0.45 0.37 0.32 0.25 0.18 0.15 0.13 0.12 0.13 0.15 0.17 0.18 0.20 0.25 0.29 0.36 0.45 0.50 0.49 0.45 0.45 0.48 0.57 0.77 0.99 1.05 0.86 0.70 0.69

GEFSCGP_prec_meanprecacc_120.txt.gz
Total_Precipitation_Accumulation
0.00 0.00 0.01 0.01 0.01 0.02 0.03 0.07 0.15 0.17 0.16 0.23 0.37 0.62 0.74 0.70 0.71 0.74 0.86 1.09 1.13 1.19 1.42 1.81 2.34 2.74 3.27 4.09 4.57 4.63 4.23 3.40 2.79 2.32 2.09 1.87 1.63 1.44 1.24 1.03 0.87 0.75 0.74 0.68
0.01 0.02 0.02 0.01 0.01 0.03 0.05 0.09 0.17 0.16 0.12 0.14 0.34 0.65 0.73 0.77 0.81 0.74 0.79 0.91 0.85 0.95 1.26 1.81 2.48 3.06 3.40 3.79 3.99 3.89 3.36 2.58 2.06 1.73 1.55 1.34 1.16 0.96 0.86 0.72 0.65 0.60 0.58 0.57
0.02 0.03 0.02 0.01 0.02 0.04 0.08 0.09 0.14 0.17 0.13 0.15 0.34 0.75 0.87 0.83 0.80 0.75 0.63 0.64 0.75 0.91 1.46 2.18 2.91 3.37 3.43 3.30 2.93 2.53 2.18 1.74 1.54 1.43 1.25 1.09 1.01 0.84 0.68 0.50 0.44 0.42 0.38 0.36
0.02 0.03 0.02 0.02 0.04 0.05 0.09 0.07 0.05 0.07 0.11 0.32 0.45 0.86 0.93 0.92 0.86 0.66 0.59 0.67 0.78 1.00 1.59 2.26 2.74 2.79 2.74 2.46 2.01 1.76 1.62 1.42 1.23 1.14 1.11 0.94 0.77 0.69 0.56 0.46 0.40 0.35 0.30 0.28
0.02 0.03 0.03 0.03 0.04 0.05 0.05 0.04 0.04 0.08 0.18 0.34 0.47 0.74 0.96 0.92 0.96 0.57 0.45 0.54 0.64 0.86 1.16 1.34 1.49 1.50 1.48 1.33 1.36 1.40 1.42 1.40 1.25 1.11 1.05 0.98 0.77 0.66 0.59 0.56 0.49 0.42 0.35 0.30
0.03 0.03 0.03 0.03 0.03 0.04 0.04 0.06 0.12 0.21 0.36 0.70 0.69 0.79 1.06 1.00 0.83 0.43 0.26 0.32 0.51 0.62 0.63 0.65 0.66 0.70 0.82 0.75 0.85 0.98 1.00 1.11 1.15 1.10 0.98 0.92 0.78 0.69 0.63 0.58 0.47 0.39 0.32 0.30
0.09 0.07 0.05 0.05 0.05 0.06 0.05 0.09 0.31 0.63 0.97 1.03 0.61 0.69 1.04 0.95 0.62 0.32 0.19 0.16 0.22 0.34 0.44 0.51 0.54 0.62 0.72 0.59 0.59 0.71 0.75 0.76 0.81 0.80 0.76 0.77 0.78 0.71 0.60 0.52 0.44 0.35 0.26 0.24
0.15 0.14 0.09 0.06 0.06 0.06 0.06 0.07 0.18 0.34 0.43 0.57 0.59 1.05 1.21 0.64 0.34 0.20 0.13 0.10 0.13 0.21 0.28 0.33 0.37 0.44 0.52 0.43 0.42 0.53 0.61 0.59 0.57 0.56 0.55 0.58 0.65 0.57 0.50 0.52 0.44 0.35 0.28 0.24
0.06 0.08 0.07 0.07 0.07 0.07 0.06 0.05 0.07 0.09 0.16 0.40 0.74 1.04 0.91 0.45 0.29 0.15 0.11 0.10 0.10 0.13 0.15 0.18 0.19 0.23 0.29 0.30 0.32 0.39 0.48 0.49 0.44 0.45 0.45 0.43 0.51 0.52 0.48 0.47 0.42 0.36 0.37 0.30
0.04 0.03 0.05 0.05 0.07 0.07 0.06 0.06 0.07 0.10 0.18 0.36 0.64 0.99 1.02 0.58 0.33 0.18 0.14 0.14 0.11 0.11 0.12 0.11 0.11 0.12 0.15 0.20 0.29 0.36 0.42 0.45 0.42 0.41 0.40 0.33 0.36 0.46 0.53 0.49 0.42 0.40 0.40 0.34
0.03 0.02 0.05 0.05 0.07 0.08 0.09 0.08 0.10 0.10 0.11 0.21 0.48 0.68 0.49 0.37 0.29 0.24 0.19 0.15 0.11 0.10 0.12 0.10 0.06 0.05 0.08 0.15 0.21 0.26 0.36 0.45 0.44 0.42 0.45 0.43 0.40 0.39 0.46 0.52 0.52 0.50 0.48 0.39
0.03 0.03 0.04 0.08 0.10 0.10 0.11 0.11 0.12 0.13 0.12 0.12 0.24 0.35 0.30 0.36 0.38 0.30 0.22 0.17 0.11 0.10 0.10 0.08 0.06 0.05 0.07 0.10 0.14 0.20 0.26 0.38 0.40 0.42 0.45 0.45 0.46 0.41 0.42 0.48 0.51 0.50 0.53 0.51
0.03 0.04 0.06 0.15 0.21 0.17 0.12 0.11 0.12 0.12 0.10 0.11 0.25 0.36 0.30 0.27 0.30 0.25 0.24 0.20 0.14 0.13 0.13 0.10 0.12 0.13 0.12 0.14 0.17 0.23 0.28 0.36 0.46 0.46 0.46 0.47 0.49 0.45 0.44 0.51 0.53 0.50 0.55 0.59
0.04 0.04 0.06 0.15 0.24 0.27 0.20 0.13 0.12 0.10 0.08 0.09 0.15 0.31 0.30 0.29 0.26 0.29 0.32 0.26 0.23 0.18 0.14 0.10 0.11 0.13 0.15 0.19 0.23 0.28 0.40 0.37 0.37 0.46 0.50 0.49 0.50 0.52 0.50 0.53 0.56 0.56 0.60 0.62
0.04 0.04 0.04 0.05 0.09 0.14 0.19 0.17 0.13 0.09 0.06 0.08 0.11 0.21 0.27 0.35 0.30 0.28 0.31 0.28 0.27 0.20 0.15 0.14 0.14 0.14 0.21 0.25 0.29 0.34 0.35 0.46 0.53 0.62 0.65 0.63 0.67 0.72 0.71 0.69 0.69 0.65 0.63 0.63
0.07 0.06 0.04 0.04 0.07 0.10 0.13 0.16 0.11 0.08 0.07 0.06 0.09 0.20 0.27 0.28 0.23 0.25 0.26 0.29 0.26 0.22 0.19 0.20 0.22 0.22 0.22 0.25 0.31 0.36 0.39 0.48 0.61 0.77 0.82 0.83 0.94 0.98 0.98 0.97 0.99 0.93 0.85 0.88
0.13 0.10 0.08 0.07 0.10 0.11 0.15 0.14 0.12 0.12 0.10 0.10 0.14 0.23 0.25 0.29 0.31 0.42 0.43 0.40 0.41 0.34 0.32 0.32 0.33 0.31 0.28 0.28 0.32 0.38 0.44 0.56 0.70 0.86 1.01 1.09 1.18 1.27 1.31 1.32 1.29 1.20 1.19 1.22
0.19 0.19 0.16 0.12 0.15 0.20 0.17 0.17 0.15 0.16 0.18 0.17 0.22 0.29 0.36 0.46 0.52 0.61 0.64 0.53 0.46 0.39 0.34 0.32 0.39 0.39 0.35 0.39 0.46 0.54 0.64 0.77 0.92 1.06 1.22 1.38 1.37 1.37 1.39 1.39 1.30 1.28 1.34 1.36
0.21 0.25 0.25 0.22 0.23 0.21 0.21 0.25 0.25 0.27 0.34 0.35 0.40 0.47 0.57 0.61 0.53 0.51 0.46 0.39 0.32 0.30 0.31 0.31 0.36 0.43 0.49 0.48 0.53 0.62 0.65 0.74 0.91 1.05 1.12 1.19 1.26 1.34 1.41 1.40 1.42 1.44 1.42 1.30
0.30 0.31 0.39 0.35 0.36 0.35 0.34 0.39 0.35 0.35 0.62 0.59 0.54 0.56 0.59 0.61 0.70 0.61 0.46 0.38 0.34 0.30 0.28 0.29 0.30 0.34 0.42 0.51 0.54 0.57 0.64 0.76 0.90 1.02 1.05 1.03 1.12 1.25 1.36 1.41 1.42 1.39 1.35 1.30
0.49 0.52 0.50 0.49 0.50 0.42 0.40 0.35 0.33 0.53 0.70 0.62 0.63 0.66 0.67 0.73 0.76 0.67 0.51 0.42 0.36 0.34 0.31 0.30 0.32 0.32 0.37 0.46 0.52 0.61 0.70 0.76 0.80 0.88 0.97 1.03 1.15 1.26 1.32 1.38 1.38 1.38 1.38 1.40
0.57 0.61 0.61 0.62 0.74 0.71 0.53 0.42 0.55 0.69 0.59 0.67 0.70 0.64 0.64 0.62 0.54 0.48 0.44 0.48 0.44 0.37 0.35 0.35 0.39 0.42 0.42 0.43 0.47 0.54 0.56 0.56 0.61 0.66 0.71 0.75 0.87 1.00 1.07 1.17 1.19 1.24 1.22 1.18
0.70 0.69 0.70 0.79 0.85 0.70 0.62 0.63 0.65 0.62 0.55 0.58 0.64 0.63 0.63 0.63 0.55 0.42 0.38 0.38 0.45 0.45 0.41 0.40 0.41 0.40 0.40 0.41 0.45 0.51 0.53 0.53 0.53 0.53 0.54 0.56 0.63 0.79 0.94 1.00 0.99 1.02 1.04 1.02
0.80 0.66 0.73 0.93 0.96 0.86 0.80 0.75 0.65 0.63 0.60 0.55 0.60 0.70 0.69 0.65 0.55 0.46 0.39 0.31 0.28 0.28 0.27 0.32 0.34 0.36 0.36 0.35 0.37 0.41 0.43 0.47 0.53 0.53 0.53 0.55 0.59 0.72 0.96 1.10 1.06 1.00 0.99 0.96
0.73 0.76 0.79 0.94 1.04 0.89 0.80 0.76 0.75 0.71 0.66 0.62 0.63 0.70 0.70 0.58 0.52 0.47 0.38 0.28 0.23 0.20 0.18 0.20 0.24 0.25 0.24 0.24 0.26 0.31 0.37 0.45 0.48 0.45 0.43 0.43 0.50 0.64 0.86 1.03 1.03 0.91 0.89 0.87
0.59 0.69 0.77 0.89 0.86 0.89 0.90 0.84 0.78 0.79 0.78 0.72 0.68 0.73 0.70 0.58 0.47 0.39 0.30 0.22 0.20 0.19 0.17 0.19 0.23 0.25 0.26 0.27 0.31 0.35 0.41 0.48 0.53 0.51 0.46 0.46 0.49 0.57 0.78 0.99 1.05 0.86 0.70 0.69

GEFSCGP_prec_meanprecacc_126.txt.gz
Total_Precipitation_Accumulation
0.00 0.00 0.01 0.01 0.01 0.02 0.03 0.07 0.15 0.17 0.16 0.23 0.37 0.62 0.74 0.71 0.72 0.76 0.88 1.11 1.16 1.22 1.48 1.90 2.47 2.93 3.49 4.29 4.75 4.80 4.40 3.55 2.97 2.49 2.24 2.01 1.76 1.59 1.37 1.13 0.95 0.81 0.78 0.71
0.01 0.02 0.02 0.01 0.01 0.03 0.05 0.09 0.17 0.16 0.12 0.14 0.34 0.65 0.73 0.77 0.82 0.75 0.80 0.91 0.86 0.98 1.31 1.90 2.60 3.20 3.54 3.95 4.16 4.08 3.55 2.77 2.25 1.93 1.77 1.56 1.37 1.12 1.01 0.85 0.76 0.69 0.65 0.61
0.02 0.03 0.02 0.01 0.02 0.04 0.08 0.09 0.14 0.17 0.13 0.15 0.34 0.75 0.87 0.83 0.81 0.75 0.63 0.64 0.76 0.95 1.52 2.24 2.99 3.50 3.55 3.41 3.07 2.70 2.39 1.98 1.79 1.68 1.48 1.28 1.20 1.02 0.84 0.62 0.51 0.48 0.44 0.41
0.02 0.03 0.02 0.02 0.04 0.05 0.09 0.07 0.05 0.07 0.11 0.32 0.45 0.86 0.93 0.92 0.86 0.67 0.60 0.67 0.80 1.06 1.63 2.32 2.82 2.88 2.83 2.57 2.14 1.89 1.76 1.62 1.47 1.36 1.26 1.04 0.85 0.76 0.62 0.53 0.45 0.40 0.34 0.32
0.02 0.03 0.03 0.03 0.04 0.05 0.05 0.04 0.04 0.08 0.18 0.34 0.47 0.74 0.96 0.92 0.96 0.57 0.45 0.55 0.67 0.90 1.19 1.39 1.55 1.57 1.57 1.45 1.51 1.55 1.55 1.52 1.40 1.28 1.17 1.06 0.83 0.72 0.66 0.64 0.57 0.49 0.40 0.33
0.03 0.03 0.03 0.03 0.03 0.04 0.04 0.06 0.12 0.21 0.36 0.70 0.69 0.79 1.06 1.00 0.83 0.43 0.26 0.33 0.52 0.64 0.66 0.70 0.71 0.76 0.90 0.85 0.97 1.09 1.11 1.20 1.27 1.23 1.07 0.98 0.84 0.74 0.68 0.63 0.51 0.44 0.37 0.33
0.09 0.07 0.05 0.05 0.05 0.06 0.05 0.09 0.31 0.63 0.97 1.03 0.61 0.69 1.04 0.95 0.62 0.32 0.20 0.17 0.23 0.36 0.47 0.55 0.60 0.67 0.78 0.65 0.65 0.79 0.83 0.83 0.91 0.90 0.83 0.82 0.82 0.75 0.63 0.54 0.46 0.38 0.29 0.27
0.15 0.14 0.09 0.06 0.06 0.06 0.06 0.07 0.18 0.34 0.43 0.57 0.59 1.05 1.21 0.64 0.34 0.20 0.14 0.10 0.14 0.22 0.31 0.37 0.41 0.48 0.56 0.47 0.46 0.57 0.66 0.63 0.62 0.62 0.62 0.63 0.69 0.60 0.53 0.55 0.47 0.38 0.30 0.26
0.06 0.08 0.07 0.07 0.07 0.07 0.06 0.05 0.07 0.09 0.16 0.40 0.74 1.04 0.91 0.45 0.29 0.15 0.11 0.10 0.11 0.15 0.19 0.22 0.23 0.26 0.33 0.34 0.36 0.42 0.51 0.53 0.48 0.49 0.49 0.47 0.55 0.56 0.52 0.50 0.44 0.39 0.40 0.33
0.04 0.03 0.05 0.05 0.07 0.07 0.06 0.06 0.07 0.10 0.18 0.36 0.64 0.99 1.02 0.58 0.33 0.18 0.14 0.15 0.14 0.14 0.15 0.13 0.13 0.14 0.18 0.24 0.33 0.39 0.44 0.47 0.45 0.44 0.44 0.37 0.41 0.50 0.57 0.52 0.45 0.44 0.44 0.38
0.03 0.02 0.05 0.05 0.07 0.08 0.09 0.08 0.10 0.10 0.11 0.21 0.48 0.68 0.49 0.37 0.29 0.24 0.20 0.16 0.13 0.13 0.15 0.12 0.09 0.09 0.12 0.18 0.24 0.29 0.39 0.47 0.47 0.46 0.49 0.49 0.46 0.43 0.50 0.55 0.55 0.54 0.55 0.46
0.03 0.03 0.04 0.08 0.10 0.10 0.11 0.11 0.12 0.13 0.12 0.12 0.24 0.35 0.30 0.36 0.38 0.30 0.22 0.19 0.13 0.12 0.12 0.10 0.09 0.10 0.13 0.14 0.18 0.24 0.31 0.42 0.44 0.46 0.50 0.52 0.53 0.46 0.47 0.52 0.55 0.56 0.60 0.62
0.03 0.04 0.06 0.15 0.22 0.17 0.12 0.11 0.12 0.12 0.10 0.11 0.25 0.36 0.30 0.27 0.30 0.26 0.25 0.20 0.15 0.14 0.15 0.12 0.16 0.17 0.16 0.19 0.22 0.28 0.34 0.43 0.51 0.51 0.52 0.54 0.55 0.51 0.50 0.57 0.60 0.58 0.65 0.71
0.04 0.04 0.06 0.15 0.24 0.27 0.20 0.13 0.12 0.10 0.08 0.09 0.15 0.31 0.30 0.29 0.26 0.30 0.32 0.27 0.23 0.18 0.15 0.12 0.13 0.17 0.18 0.23 0.29 0.37 0.54 0.49 0.46 0.53 0.56 0.56 0.57 0.60 0.61 0.63 0.68 0.68 0.73 0.75
0.04 0.04 0.04 0.05 0.09 0.14 0.19 0.17 0.13 0.09 0.06 0.08 0.11 0.21 0.27 0.35 0.30 0.29 0.31 0.29 0.28 0.21 0.16 0.16 0.16 0.17 0.24 0.29 0.32 0.39 0.46 0.58 0.60 0.69 0.73 0.75 0.81 0.87 0.90 0.90 0.90 0.85 0.84 0.83
0.07 0.06 0.04 0.04 0.07 0.10 0.13 0.16 0.11 0.08 0.07 0.06 0.09 0.20 0.27 0.28 0.23 0.26 0.26 0.30 0.27 0.23 0.21 0.22 0.24 0.24 0.24 0.26 0.32 0.40 0.43 0.52 0.65 0.82 0.90 0.94 1.08 1.18 1.21 1.26 1.28 1.20 1.11 1.14
0.13 0.10 0.08 0.07 0.10 0.11 0.15 0.14 0.12 0.12 0.11 0.10 0.15 0.23 0.25 0.29 0.31 0.43 0.43 0.41 0.42 0.35 0.33 0.33 0.35 0.33 0.31 0.30 0.34 0.40 0.47 0.59 0.74 0.93 1.10 1.22 1.34 1.46 1.54 1.59 1.59 1.50 1.48 1.50
0.19 0.19 0.16 0.12 0.15 0.20 0.17 0.18 0.15 0.16 0.18 0.18 0.22 0.29 0.37 0.47 0.53 0.62 0.66 0.54 0.48 0.41 0.36 0.35 0.42 0.43 0.40 0.43 0.49 0.56 0.67 0.82 0.98 1.14 1.32 1.49 1.50 1.51 1.56 1.60 1.54 1.53 1.59 1.61
0.21 0.25 0.26 0.22 0.23 0.21 0.22 0.25 0.25 0.27 0.35 0.35 0.41 0.47 0.58 0.63 0.56 0.54 0.50 0.42 0.34 0.32 0.34 0.35 0.40 0.48 0.54 0.54 0.60 0.68 0.71 0.82 1.00 1.16 1.24 1.31 1.40 1.50 1.55 1.54 1.58 1.60 1.61 1.50
0.30 0.31 0.40 0.35 0.36 0.35 0.34 0.39 0.35 0.36 0.62 0.60 0.55 0.57 0.61 0.64 0.73 0.65 0.49 0.41 0.38 0.34 0.33 0.35 0.37 0.42 0.51 0.59 0.61 0.64 0.71 0.83 1.01 1.15 1.18 1.18 1.29 1.42 1.50 1.52 1.52 1.49 1.47 1.44
0.49 0.53 0.50 0.49 0.51 0.42 0.40 0.35 0.34 0.54 0.71 0.63 0.64 0.68 0.69 0.75 0.79 0.70 0.54 0.45 0.40 0.38 0.36 0.38 0.43 0.44 0.46 0.54 0.59 0.68 0.78 0.85 0.90 0.99 1.07 1.15 1.29 1.39 1.43 1.47 1.47 1.46 1.46 1.48
0.58 0.62 0.62 0.62 0.74 0.71 0.53 0.43 0.56 0.70 0.60 0.68 0.71 0.65 0.66 0.65 0.58 0.51 0.48 0.52 0.48 0.41 0.38 0.39 0.46 0.55 0.58 0.58 0.59 0.63 0.66 0.67 0.74 0.79 0.84 0.88 0.99 1.12 1.18 1.27 1.28 1.32 1.29 1.25
0.71 0.69 0.71 0.80 0.86 0.70 0.63 0.64 0.66 0.64 0.56 0.59 0.65 0.64 0.65 0.66 0.58 0.45 0.40 0.41 0.47 0.47 0.43 0.43 0.46 0.51 0.52 0.56 0.62 0.69 0.68 0.66 0.66 0.66 0.66 0.68 0.73 0.89 1.03 1.08 1.07 1.10 1.11 1.09
0.81 0.67 0.74 0.94 0.97 0.87 0.81 0.77 0.67 0.65 0.62 0.56 0.62 0.72 0.73 0.69 0.59 0.49 0.42 0.34 0.31 0.30 0.29 0.35 0.39 0.46 0.49 0.48 0.51 0.57 0.61 0.62 0.66 0.66 0.65 0.65 0.70 0.80 1.05 1.18 1.12 1.06 1.04 1.00
0.74 0.77 0.81 0.95 1.05 0.89 0.81 0.78 0.76 0.72 0.68 0.65 0.66 0.74 0.74 0.63 0.58 0.52 0.42 0.32 0.27 0.24 0.22 0.25 0.29 0.32 0.32 0.33 0.37 0.40 0.45 0.52 0.56 0.54 0.51 0.52 0.58 0.71 0.91 1.07 1.06 0.93 0.90 0.89
0.60 0.71 0.78 0.90 0.88 0.90 0.92 0.85 0.81 0.83 0.82 0.76 0.72 0.77 0.75 0.64 0.55 0.46 0.36 0.27 0.25 0.23 0.22 0.25 0.28 0.32 0.34 0.35 0.40 0.44 0.47 0.54 0.59 0.56 0.53 0.52 0.54 0.62 0.82 1.02 1.07 0.87 0.71 0.70